Time,TemperatureF,DewpointF,PressureIn,WindDirection,WindDirectionDegrees,WindSpeedMPH,WindSpeedGustMPH,Humidity,HourlyPrecipIn,Conditions,Clouds,dailyrainin,SoftwareType,DateUTC
2013-09-13 00:02:00,58.8,57.4,30.01,NE,56,0.0,4.0,95,0.04,,,1.08,meteohub,2013-09-13 06:02:00,
2013-09-13 00:04:00,58.8,57.4,30.00,NE,56,1.0,4.0,95,0.04,,,1.08,meteohub,2013-09-13 06:04:00,
2013-09-13 00:05:00,58.8,57.4,30.01,NE,53,2.0,4.0,95,0.04,,,1.08,meteohub,2013-09-13 06:05:00,
2013-09-13 00:06:00,58.8,57.4,30.00,NE,53,3.0,4.0,95,0.04,,,0.00,meteohub,2013-09-13 06:06:00,
2013-09-13 00:07:00,58.8,57.4,30.00,NE,56,2.0,4.0,95,0.04,,,0.00,meteohub,2013-09-13 06:07:00,
2013-09-13 00:10:00,58.8,57.4,30.00,NE,56,0.0,4.0,95,0.04,,,0.00,meteohub,2013-09-13 06:10:00,
2013-09-13 00:11:00,58.8,57.4,30.00,NE,55,1.0,5.0,95,0.04,,,0.00,meteohub,2013-09-13 06:11:00,
2013-09-13 00:12:00,58.8,57.4,30.00,NE,55,1.0,5.0,95,0.04,,,0.00,meteohub,2013-09-13 06:12:00,
2013-09-13 00:16:00,58.8,57.4,30.00,NE,53,3.0,5.0,95,0.04,,,0.01,meteohub,2013-09-13 06:16:00,
2013-09-13 00:17:00,58.8,57.4,30.00,NE,53,3.0,5.0,95,0.04,,,0.01,meteohub,2013-09-13 06:17:00,
2013-09-13 00:18:00,58.8,57.4,30.00,NE,53,3.0,5.0,95,0.04,,,0.01,meteohub,2013-09-13 06:18:00,
2013-09-13 00:19:00,58.8,57.4,30.00,NE,51,2.0,5.0,95,0.04,,,0.01,meteohub,2013-09-13 06:19:00,
2013-09-13 00:22:00,58.6,57.2,30.00,NE,51,2.0,5.0,95,0.04,,,0.01,meteohub,2013-09-13 06:22:00,
2013-09-13 00:23:00,58.8,57.4,30.00,NE,49,4.0,5.0,95,0.04,,,0.01,meteohub,2013-09-13 06:23:00,
2013-09-13 00:24:00,58.8,57.4,30.00,NE,49,3.0,5.0,95,0.04,,,0.01,meteohub,2013-09-13 06:24:00,
2013-09-13 00:25:00,58.6,57.2,30.00,NE,48,0.0,5.0,95,0.04,,,0.01,meteohub,2013-09-13 06:25:00,
2013-09-13 00:28:00,58.6,57.2,30.00,NE,48,2.0,5.0,95,0.04,,,0.01,meteohub,2013-09-13 06:28:00,
2013-09-13 00:29:00,58.6,57.2,30.00,NE,48,2.0,5.0,95,0.04,,,0.01,meteohub,2013-09-13 06:29:00,
2013-09-13 00:30:00,58.6,57.2,30.00,NE,48,2.0,5.0,95,0.04,,,0.01,meteohub,2013-09-13 06:30:00,
2013-09-13 00:32:00,58.6,57.2,29.99,NNE,28,3.0,5.0,95,0.04,,,0.02,meteohub,2013-09-13 06:32:00,
2013-09-13 00:34:00,58.6,57.2,29.99,NE,34,4.0,5.0,95,0.04,,,0.02,meteohub,2013-09-13 06:34:00,
2013-09-13 00:35:00,58.6,57.2,29.99,NE,34,1.0,6.0,95,0.04,,,0.02,meteohub,2013-09-13 06:35:00,
2013-09-13 00:37:00,58.6,57.2,29.99,NE,34,0.0,6.0,95,0.04,,,0.02,meteohub,2013-09-13 06:37:00,
2013-09-13 00:40:00,58.6,57.2,29.99,NE,34,1.0,6.0,95,0.04,,,0.02,meteohub,2013-09-13 06:40:00,
2013-09-13 00:41:00,58.6,57.2,29.99,NE,34,3.0,6.0,95,0.03,,,0.02,meteohub,2013-09-13 06:41:00,
2013-09-13 00:42:00,58.6,57.2,29.99,NE,34,0.0,6.0,95,0.03,,,0.02,meteohub,2013-09-13 06:42:00,
2013-09-13 00:45:00,58.6,57.2,29.99,NE,34,3.0,6.0,95,0.03,,,0.02,meteohub,2013-09-13 06:45:00,
2013-09-13 00:47:00,58.6,57.2,29.99,NE,36,1.0,6.0,95,0.03,,,0.02,meteohub,2013-09-13 06:47:00,
2013-09-13 00:48:00,58.6,57.2,29.99,NE,36,4.0,6.0,95,0.03,,,0.02,meteohub,2013-09-13 06:48:00,
2013-09-13 00:49:00,58.6,57.2,29.99,NE,38,3.0,6.0,95,0.03,,,0.02,meteohub,2013-09-13 06:49:00,
2013-09-13 00:50:00,58.5,57.0,29.99,NE,46,1.0,6.0,95,0.03,,,0.02,meteohub,2013-09-13 06:50:00,
2013-09-13 00:52:00,58.5,57.0,29.99,NE,46,3.0,4.0,95,0.03,,,0.02,meteohub,2013-09-13 06:52:00,
2013-09-13 00:53:00,58.5,57.0,29.99,NE,46,1.0,4.0,95,0.03,,,0.02,meteohub,2013-09-13 06:53:00,
2013-09-13 00:55:00,58.5,57.0,29.99,NE,46,4.0,4.0,95,0.03,,,0.02,meteohub,2013-09-13 06:55:00,
2013-09-13 00:56:00,58.5,57.0,29.99,NE,46,0.0,5.0,95,0.02,,,0.02,meteohub,2013-09-13 06:56:00,
2013-09-13 00:57:00,58.5,57.0,29.99,NE,40,4.0,5.0,95,0.02,,,0.02,meteohub,2013-09-13 06:57:00,
2013-09-13 00:58:00,58.5,57.0,29.99,NE,40,3.0,5.0,95,0.02,,,0.02,meteohub,2013-09-13 06:58:00,
2013-09-13 01:00:00,58.5,57.0,29.99,NE,40,2.0,5.0,95,0.02,,,0.02,meteohub,2013-09-13 07:00:00,
2013-09-13 01:04:00,58.5,57.0,29.98,NE,43,3.0,5.0,95,0.02,,,0.02,meteohub,2013-09-13 07:04:00,
2013-09-13 01:05:00,58.5,57.0,29.98,NE,43,3.0,5.0,95,0.02,,,0.02,meteohub,2013-09-13 07:05:00,
2013-09-13 01:06:00,58.5,57.0,29.98,NE,43,2.0,5.0,95,0.02,,,0.02,meteohub,2013-09-13 07:06:00,
2013-09-13 01:10:00,58.5,57.0,29.98,NE,43,0.0,5.0,95,0.01,,,0.02,meteohub,2013-09-13 07:10:00,
2013-09-13 01:11:00,58.5,57.0,29.98,NE,43,2.0,5.0,95,0.01,,,0.02,meteohub,2013-09-13 07:11:00,
2013-09-13 01:12:00,58.5,57.0,29.98,NE,43,3.0,5.0,95,0.01,,,0.02,meteohub,2013-09-13 07:12:00,
2013-09-13 01:13:00,58.5,57.0,29.98,NE,43,2.0,5.0,95,0.01,,,0.02,meteohub,2013-09-13 07:13:00,
2013-09-13 01:16:00,58.5,57.0,29.98,NE,42,4.0,5.0,95,0.01,,,0.02,meteohub,2013-09-13 07:16:00,
2013-09-13 01:17:00,58.3,56.8,29.98,NE,42,4.0,5.0,95,0.01,,,0.02,meteohub,2013-09-13 07:17:00,
2013-09-13 01:19:00,58.3,56.8,29.98,NE,42,1.0,5.0,95,0.01,,,0.02,meteohub,2013-09-13 07:19:00,
2013-09-13 01:20:00,58.3,56.8,29.98,NE,42,0.0,5.0,95,0.01,,,0.02,meteohub,2013-09-13 07:20:00,
2013-09-13 01:21:00,58.3,56.8,29.98,NE,42,2.0,5.0,95,0.01,,,0.02,meteohub,2013-09-13 07:21:00,
2013-09-13 01:22:00,58.3,56.8,29.98,NE,42,2.0,5.0,95,0.01,,,0.02,meteohub,2013-09-13 07:22:00,
2013-09-13 01:23:00,58.3,56.8,29.98,NE,42,0.0,5.0,95,0.01,,,0.02,meteohub,2013-09-13 07:23:00,
2013-09-13 01:24:00,58.3,56.8,29.98,NE,42,3.0,5.0,95,0.01,,,0.02,meteohub,2013-09-13 07:24:00,
2013-09-13 01:25:00,58.3,56.8,29.98,NE,42,0.0,5.0,95,0.01,,,0.02,meteohub,2013-09-13 07:25:00,
2013-09-13 01:27:00,58.3,56.8,29.98,NE,42,0.0,5.0,95,0.01,,,0.02,meteohub,2013-09-13 07:27:00,
2013-09-13 01:28:00,58.3,56.8,29.97,NE,42,1.0,5.0,95,0.01,,,0.02,meteohub,2013-09-13 07:28:00,
2013-09-13 01:30:00,58.3,56.8,29.98,NE,42,0.0,5.0,95,0.01,,,0.02,meteohub,2013-09-13 07:30:00,
2013-09-13 01:32:00,58.3,56.8,29.98,NE,42,0.0,5.0,95,0.00,,,0.02,meteohub,2013-09-13 07:32:00,
2013-09-13 01:33:00,58.3,56.8,29.97,NE,42,0.0,5.0,95,0.00,,,0.02,meteohub,2013-09-13 07:33:00,
2013-09-13 01:35:00,58.3,56.8,29.98,NE,42,1.0,3.0,95,0.00,,,0.02,meteohub,2013-09-13 07:35:00,
2013-09-13 01:37:00,58.3,56.8,29.97,NE,42,0.0,3.0,95,0.00,,,0.02,meteohub,2013-09-13 07:37:00,
2013-09-13 01:39:00,58.3,56.8,29.97,NE,42,0.0,3.0,95,0.00,,,0.02,meteohub,2013-09-13 07:39:00,
2013-09-13 01:41:00,58.3,56.8,29.97,NE,42,0.0,3.0,95,0.00,,,0.02,meteohub,2013-09-13 07:41:00,
2013-09-13 01:42:00,58.3,56.8,29.97,NE,42,3.0,3.0,95,0.00,,,0.02,meteohub,2013-09-13 07:42:00,
2013-09-13 01:45:00,58.3,56.8,29.97,NE,42,0.0,3.0,95,0.00,,,0.02,meteohub,2013-09-13 07:45:00,
2013-09-13 01:47:00,58.3,56.8,29.97,NE,42,2.0,4.0,95,0.00,,,0.02,meteohub,2013-09-13 07:47:00,
2013-09-13 01:48:00,58.3,56.8,29.97,NE,42,2.0,4.0,95,0.00,,,0.02,meteohub,2013-09-13 07:48:00,
2013-09-13 01:50:00,58.3,56.8,29.97,NE,42,3.0,4.0,95,0.00,,,0.02,meteohub,2013-09-13 07:50:00,
2013-09-13 01:53:00,58.3,56.8,29.97,NE,42,0.0,4.0,95,0.00,,,0.02,meteohub,2013-09-13 07:53:00,
2013-09-13 01:54:00,58.3,56.8,29.97,NE,42,0.0,4.0,95,0.00,,,0.02,meteohub,2013-09-13 07:54:00,
2013-09-13 01:55:00,58.3,56.8,29.97,NE,42,0.0,4.0,95,0.00,,,0.02,meteohub,2013-09-13 07:55:00,
2013-09-13 01:58:00,58.3,56.8,29.97,NE,42,0.0,4.0,95,0.00,,,0.02,meteohub,2013-09-13 07:58:00,
2013-09-13 01:59:00,58.3,56.8,29.97,NE,42,0.0,4.0,95,0.00,,,0.02,meteohub,2013-09-13 07:59:00,
2013-09-13 02:00:00,58.3,56.8,29.97,NE,42,0.0,4.0,95,0.00,,,0.02,meteohub,2013-09-13 08:00:00,
2013-09-13 02:02:00,58.3,56.8,29.96,NE,42,2.0,4.0,95,0.00,,,0.02,meteohub,2013-09-13 08:02:00,
2013-09-13 02:05:00,58.3,56.8,29.96,NE,42,0.0,4.0,95,0.01,,,0.03,meteohub,2013-09-13 08:05:00,
2013-09-13 02:07:00,58.3,56.8,29.96,NE,42,3.0,3.0,95,0.01,,,0.03,meteohub,2013-09-13 08:07:00,
2013-09-13 02:08:00,58.3,56.8,29.96,NE,42,0.0,3.0,95,0.01,,,0.03,meteohub,2013-09-13 08:08:00,
2013-09-13 02:10:00,58.3,56.8,29.96,NE,42,2.0,4.0,95,0.01,,,0.03,meteohub,2013-09-13 08:10:00,
2013-09-13 02:12:00,58.3,56.8,29.96,NE,42,4.0,4.0,95,0.01,,,0.03,meteohub,2013-09-13 08:12:00,
2013-09-13 02:13:00,58.3,56.8,29.96,NE,42,2.0,4.0,95,0.01,,,0.03,meteohub,2013-09-13 08:13:00,
2013-09-13 02:14:00,58.3,56.8,29.96,NE,42,0.0,4.0,95,0.01,,,0.03,meteohub,2013-09-13 08:14:00,
2013-09-13 02:16:00,58.3,56.8,29.96,NE,42,0.0,4.0,95,0.02,,,0.04,meteohub,2013-09-13 08:16:00,
2013-09-13 02:19:00,58.3,56.8,29.96,NE,42,0.0,4.0,95,0.02,,,0.04,meteohub,2013-09-13 08:19:00,
2013-09-13 02:20:00,58.3,56.8,29.96,NE,42,2.0,4.0,95,0.02,,,0.04,meteohub,2013-09-13 08:20:00,
2013-09-13 02:21:00,58.3,56.8,29.96,NE,42,2.0,4.0,95,0.02,,,0.04,meteohub,2013-09-13 08:21:00,
2013-09-13 02:23:00,58.3,56.8,29.96,NE,42,2.0,4.0,95,0.02,,,0.04,meteohub,2013-09-13 08:23:00,
2013-09-13 02:24:00,58.3,56.8,29.96,NE,42,0.0,4.0,95,0.02,,,0.04,meteohub,2013-09-13 08:24:00,
2013-09-13 02:25:00,58.3,57.2,29.96,NE,42,0.0,4.0,96,0.02,,,0.04,meteohub,2013-09-13 08:25:00,
2013-09-13 02:26:00,58.3,57.2,29.96,NE,42,0.0,4.0,96,0.02,,,0.04,meteohub,2013-09-13 08:26:00,
2013-09-13 02:29:00,58.3,57.2,29.95,NE,42,3.0,4.0,96,0.02,,,0.04,meteohub,2013-09-13 08:29:00,
2013-09-13 02:30:00,58.3,57.2,29.95,NE,42,1.0,4.0,96,0.02,,,0.04,meteohub,2013-09-13 08:30:00,
2013-09-13 02:33:00,58.3,57.2,29.95,NE,42,0.0,3.0,96,0.02,,,0.04,meteohub,2013-09-13 08:33:00,
2013-09-13 02:34:00,58.3,57.2,29.95,NE,42,0.0,3.0,96,0.02,,,0.04,meteohub,2013-09-13 08:34:00,
2013-09-13 02:35:00,58.3,57.2,29.95,NE,42,0.0,3.0,96,0.02,,,0.04,meteohub,2013-09-13 08:35:00,
2013-09-13 02:36:00,58.3,57.2,29.95,NE,42,1.0,3.0,96,0.02,,,0.04,meteohub,2013-09-13 08:36:00,
2013-09-13 02:39:00,58.3,57.2,29.95,NE,42,0.0,3.0,96,0.02,,,0.04,meteohub,2013-09-13 08:39:00,
2013-09-13 02:40:00,58.3,57.2,29.95,NE,42,1.0,3.0,96,0.02,,,0.04,meteohub,2013-09-13 08:40:00,
2013-09-13 02:41:00,58.3,57.2,29.95,NE,42,0.0,3.0,96,0.03,,,0.05,meteohub,2013-09-13 08:41:00,
2013-09-13 02:44:00,58.3,57.2,29.95,NE,42,0.0,3.0,96,0.03,,,0.05,meteohub,2013-09-13 08:44:00,
2013-09-13 02:45:00,58.3,57.2,29.95,NE,42,0.0,3.0,96,0.03,,,0.05,meteohub,2013-09-13 08:45:00,
2013-09-13 02:46:00,58.3,57.2,29.94,NE,42,0.0,3.0,96,0.04,,,0.06,meteohub,2013-09-13 08:46:00,
2013-09-13 02:47:00,58.3,57.2,29.94,NE,42,0.0,3.0,96,0.04,,,0.06,meteohub,2013-09-13 08:47:00,
2013-09-13 02:51:00,58.1,57.0,29.94,NE,42,0.0,2.0,96,0.04,,,0.06,meteohub,2013-09-13 08:51:00,
2013-09-13 02:52:00,58.1,57.0,29.94,NE,42,0.0,2.0,96,0.04,,,0.06,meteohub,2013-09-13 08:52:00,
2013-09-13 02:53:00,58.1,57.0,29.94,NE,42,0.0,2.0,96,0.04,,,0.06,meteohub,2013-09-13 08:53:00,
2013-09-13 02:56:00,58.1,57.0,29.94,NE,42,0.0,2.0,96,0.04,,,0.06,meteohub,2013-09-13 08:56:00,
2013-09-13 02:57:00,58.1,57.0,29.94,NE,42,2.0,2.0,96,0.04,,,0.06,meteohub,2013-09-13 08:57:00,
2013-09-13 02:58:00,58.1,57.0,29.94,NE,42,0.0,2.0,96,0.04,,,0.06,meteohub,2013-09-13 08:58:00,
2013-09-13 02:59:00,58.1,57.0,29.94,NE,42,1.0,2.0,96,0.04,,,0.06,meteohub,2013-09-13 08:59:00,
2013-09-13 03:01:00,58.1,57.0,29.94,NE,42,0.0,3.0,96,0.03,,,0.06,meteohub,2013-09-13 09:01:00,
2013-09-13 03:03:00,58.1,57.0,29.94,NE,42,0.0,3.0,96,0.03,,,0.06,meteohub,2013-09-13 09:03:00,
2013-09-13 03:04:00,58.1,57.0,29.94,NE,42,3.0,3.0,96,0.03,,,0.06,meteohub,2013-09-13 09:04:00,
2013-09-13 03:06:00,58.1,57.0,29.93,NE,42,3.0,3.0,96,0.03,,,0.06,meteohub,2013-09-13 09:06:00,
2013-09-13 03:07:00,58.1,57.0,29.93,NE,42,1.0,3.0,96,0.03,,,0.06,meteohub,2013-09-13 09:07:00,
2013-09-13 03:08:00,58.1,57.0,29.93,NE,42,0.0,3.0,96,0.03,,,0.06,meteohub,2013-09-13 09:08:00,
2013-09-13 03:09:00,58.1,57.0,29.93,NE,42,0.0,3.0,96,0.03,,,0.06,meteohub,2013-09-13 09:09:00,
2013-09-13 03:14:00,58.1,57.0,29.93,NE,42,0.0,3.0,96,0.04,,,0.07,meteohub,2013-09-13 09:14:00,
2013-09-13 03:15:00,58.1,57.0,29.93,NE,42,0.0,3.0,96,0.04,,,0.07,meteohub,2013-09-13 09:15:00,
2013-09-13 03:16:00,58.1,57.0,29.93,NE,42,0.0,4.0,96,0.03,,,0.07,meteohub,2013-09-13 09:16:00,
2013-09-13 03:20:00,58.1,57.0,29.93,NE,42,0.0,4.0,96,0.03,,,0.07,meteohub,2013-09-13 09:20:00,
2013-09-13 03:21:00,58.1,57.0,29.93,NE,42,0.0,4.0,96,0.03,,,0.07,meteohub,2013-09-13 09:21:00,
2013-09-13 03:22:00,58.1,57.0,29.93,NE,42,0.0,4.0,96,0.03,,,0.07,meteohub,2013-09-13 09:22:00,
2013-09-13 03:25:00,58.3,57.2,29.93,NE,42,1.0,4.0,96,0.03,,,0.07,meteohub,2013-09-13 09:25:00,
2013-09-13 03:26:00,58.1,57.0,29.93,NE,42,1.0,3.0,96,0.03,,,0.07,meteohub,2013-09-13 09:26:00,
2013-09-13 03:30:00,58.1,57.0,29.93,NE,42,0.0,3.0,96,0.03,,,0.07,meteohub,2013-09-13 09:30:00,
2013-09-13 03:31:00,58.3,57.2,29.93,NE,42,0.0,2.0,96,0.03,,,0.07,meteohub,2013-09-13 09:31:00,
2013-09-13 03:35:00,58.1,57.0,29.93,NE,42,0.0,2.0,96,0.02,,,0.07,meteohub,2013-09-13 09:35:00,
2013-09-13 03:36:00,58.1,57.0,29.93,NE,42,0.0,2.0,96,0.02,,,0.07,meteohub,2013-09-13 09:36:00,
2013-09-13 03:37:00,58.1,57.0,29.93,NE,42,0.0,2.0,96,0.02,,,0.07,meteohub,2013-09-13 09:37:00,
2013-09-13 03:41:00,58.1,57.0,29.93,NE,42,1.0,2.0,96,0.02,,,0.07,meteohub,2013-09-13 09:41:00,
2013-09-13 03:42:00,58.1,57.0,29.93,NE,42,0.0,2.0,96,0.02,,,0.07,meteohub,2013-09-13 09:42:00,
2013-09-13 03:43:00,58.1,57.0,29.93,NE,42,1.0,2.0,96,0.02,,,0.07,meteohub,2013-09-13 09:43:00,
2013-09-13 03:46:00,58.1,57.0,29.93,NE,42,0.0,3.0,96,0.01,,,0.07,meteohub,2013-09-13 09:46:00,
2013-09-13 03:47:00,58.1,57.0,29.93,NE,42,2.0,3.0,96,0.01,,,0.07,meteohub,2013-09-13 09:47:00,
2013-09-13 03:50:00,58.1,57.0,29.93,NE,42,0.0,3.0,96,0.01,,,0.07,meteohub,2013-09-13 09:50:00,
2013-09-13 03:51:00,57.9,56.8,29.93,NE,42,0.0,3.0,96,0.01,,,0.07,meteohub,2013-09-13 09:51:00,
2013-09-13 03:55:00,57.9,56.8,29.92,NE,42,0.0,3.0,96,0.01,,,0.07,meteohub,2013-09-13 09:55:00,
2013-09-13 03:56:00,57.9,56.8,29.93,NE,42,3.0,3.0,96,0.01,,,0.07,meteohub,2013-09-13 09:56:00,
2013-09-13 03:57:00,57.9,56.8,29.92,NE,42,3.0,3.0,96,0.01,,,0.07,meteohub,2013-09-13 09:57:00,
2013-09-13 03:59:00,57.9,56.8,29.92,NE,42,1.0,3.0,96,0.01,,,0.07,meteohub,2013-09-13 09:59:00,
2013-09-13 04:00:00,57.9,56.8,29.92,NE,42,0.0,4.0,96,0.02,,,0.08,meteohub,2013-09-13 10:00:00,
2013-09-13 04:01:00,57.9,56.8,29.92,NE,42,0.0,4.0,96,0.02,,,0.08,meteohub,2013-09-13 10:01:00,
2013-09-13 04:02:00,57.9,56.8,29.92,NE,42,0.0,4.0,96,0.02,,,0.08,meteohub,2013-09-13 10:02:00,
2013-09-13 04:03:00,57.9,56.8,29.92,NE,42,0.0,4.0,96,0.02,,,0.08,meteohub,2013-09-13 10:03:00,
2013-09-13 04:05:00,57.9,56.8,29.92,NE,42,0.0,4.0,96,0.02,,,0.08,meteohub,2013-09-13 10:05:00,
2013-09-13 04:07:00,57.9,56.8,29.92,NE,42,0.0,4.0,96,0.02,,,0.08,meteohub,2013-09-13 10:07:00,
2013-09-13 04:08:00,57.9,56.8,29.92,NE,42,0.0,4.0,96,0.02,,,0.08,meteohub,2013-09-13 10:08:00,
2013-09-13 04:09:00,57.9,56.8,29.92,NE,42,0.0,4.0,96,0.02,,,0.08,meteohub,2013-09-13 10:09:00,
2013-09-13 04:11:00,57.9,56.8,29.92,NE,42,0.0,4.0,96,0.01,,,0.08,meteohub,2013-09-13 10:11:00,
2013-09-13 04:12:00,57.9,56.8,29.92,NE,42,0.0,4.0,96,0.01,,,0.08,meteohub,2013-09-13 10:12:00,
2013-09-13 04:13:00,57.9,56.8,29.92,NE,42,0.0,4.0,96,0.01,,,0.08,meteohub,2013-09-13 10:13:00,
2013-09-13 04:17:00,58.1,57.0,29.92,NE,42,0.0,2.0,96,0.01,,,0.08,meteohub,2013-09-13 10:17:00,
2013-09-13 04:18:00,58.1,57.0,29.92,NE,42,0.0,2.0,96,0.01,,,0.08,meteohub,2013-09-13 10:18:00,
2013-09-13 04:21:00,58.1,57.0,29.92,NE,42,0.0,2.0,96,0.01,,,0.08,meteohub,2013-09-13 10:21:00,
2013-09-13 04:22:00,58.1,57.0,29.92,NE,42,2.0,2.0,96,0.01,,,0.08,meteohub,2013-09-13 10:22:00,
2013-09-13 04:23:00,58.1,57.0,29.92,NE,42,0.0,2.0,96,0.01,,,0.08,meteohub,2013-09-13 10:23:00,
2013-09-13 04:26:00,58.1,57.0,29.92,NE,42,0.0,3.0,96,0.01,,,0.08,meteohub,2013-09-13 10:26:00,
2013-09-13 04:27:00,58.1,57.0,29.92,NE,42,0.0,3.0,96,0.01,,,0.08,meteohub,2013-09-13 10:27:00,
2013-09-13 04:29:00,58.1,57.0,29.92,NE,42,0.0,3.0,96,0.01,,,0.08,meteohub,2013-09-13 10:29:00,
2013-09-13 04:31:00,57.9,56.8,29.92,NE,42,0.0,3.0,96,0.01,,,0.08,meteohub,2013-09-13 10:31:00,
2013-09-13 04:32:00,57.9,56.8,29.92,NE,42,0.0,3.0,96,0.01,,,0.08,meteohub,2013-09-13 10:32:00,
2013-09-13 04:35:00,57.9,56.8,29.92,NE,42,0.0,3.0,96,0.01,,,0.08,meteohub,2013-09-13 10:35:00,
2013-09-13 04:36:00,57.9,56.8,29.92,NE,42,0.0,3.0,96,0.01,,,0.08,meteohub,2013-09-13 10:36:00,
2013-09-13 04:37:00,57.9,56.8,29.92,NE,42,0.0,3.0,96,0.01,,,0.08,meteohub,2013-09-13 10:37:00,
2013-09-13 04:38:00,57.9,56.8,29.92,NE,42,0.0,3.0,96,0.01,,,0.08,meteohub,2013-09-13 10:38:00,
2013-09-13 04:39:00,57.9,56.8,29.92,NE,42,0.0,3.0,96,0.01,,,0.08,meteohub,2013-09-13 10:39:00,
2013-09-13 04:42:00,57.9,56.8,29.92,NE,42,0.0,1.0,96,0.01,,,0.08,meteohub,2013-09-13 10:42:00,
2013-09-13 04:43:00,57.9,56.8,29.92,NE,42,0.0,1.0,96,0.01,,,0.08,meteohub,2013-09-13 10:43:00,
2013-09-13 04:44:00,57.9,56.8,29.92,NE,42,0.0,1.0,96,0.01,,,0.08,meteohub,2013-09-13 10:44:00,
2013-09-13 04:46:00,57.9,56.8,29.92,NE,42,0.0,1.0,96,0.01,,,0.08,meteohub,2013-09-13 10:46:00,
2013-09-13 04:48:00,57.9,56.8,29.91,NE,42,0.0,1.0,96,0.01,,,0.08,meteohub,2013-09-13 10:48:00,
2013-09-13 04:49:00,57.9,56.8,29.92,NE,42,0.0,1.0,96,0.01,,,0.08,meteohub,2013-09-13 10:49:00,
2013-09-13 04:53:00,57.9,56.8,29.91,NE,42,0.0,1.0,96,0.01,,,0.08,meteohub,2013-09-13 10:53:00,
2013-09-13 04:54:00,57.9,56.8,29.91,NE,42,0.0,1.0,96,0.01,,,0.08,meteohub,2013-09-13 10:54:00,
2013-09-13 04:55:00,57.9,56.8,29.91,NE,42,0.0,1.0,96,0.01,,,0.08,meteohub,2013-09-13 10:55:00,
2013-09-13 04:56:00,57.9,56.8,29.91,NE,42,0.0,2.0,96,0.01,,,0.08,meteohub,2013-09-13 10:56:00,
2013-09-13 04:57:00,57.9,56.8,29.91,NE,42,0.0,2.0,96,0.01,,,0.08,meteohub,2013-09-13 10:57:00,
2013-09-13 04:59:00,58.1,57.0,29.91,NE,42,0.0,2.0,96,0.01,,,0.08,meteohub,2013-09-13 10:59:00,
2013-09-13 05:00:00,58.1,57.0,29.91,NE,42,0.0,2.0,96,0.01,,,0.08,meteohub,2013-09-13 11:00:00,
2013-09-13 05:01:00,58.1,57.0,29.91,NE,42,0.0,2.0,96,0.00,,,0.08,meteohub,2013-09-13 11:01:00,
2013-09-13 05:02:00,58.1,57.0,29.91,NE,42,0.0,2.0,96,0.00,,,0.08,meteohub,2013-09-13 11:02:00,
2013-09-13 05:04:00,58.1,57.0,29.91,NE,42,0.0,2.0,96,0.00,,,0.08,meteohub,2013-09-13 11:04:00,
2013-09-13 05:06:00,57.9,56.8,29.91,NE,42,0.0,2.0,96,0.00,,,0.08,meteohub,2013-09-13 11:06:00,
2013-09-13 05:07:00,58.1,57.0,29.91,NE,42,0.0,1.0,96,0.00,,,0.08,meteohub,2013-09-13 11:07:00,
2013-09-13 05:09:00,57.9,56.8,29.91,NE,42,0.0,1.0,96,0.00,,,0.08,meteohub,2013-09-13 11:09:00,
2013-09-13 05:11:00,57.9,56.8,29.91,NE,42,0.0,1.0,96,0.00,,,0.08,meteohub,2013-09-13 11:11:00,
2013-09-13 05:12:00,57.9,56.8,29.91,NE,42,0.0,1.0,96,0.00,,,0.08,meteohub,2013-09-13 11:12:00,
2013-09-13 05:13:00,57.9,56.8,29.91,NE,42,0.0,1.0,96,0.00,,,0.08,meteohub,2013-09-13 11:13:00,
2013-09-13 05:16:00,57.9,56.8,29.91,NE,42,0.0,1.0,96,0.00,,,0.08,meteohub,2013-09-13 11:16:00,
2013-09-13 05:18:00,57.9,56.8,29.91,NE,42,0.0,1.0,96,0.00,,,0.08,meteohub,2013-09-13 11:18:00,
2013-09-13 05:19:00,57.9,56.8,29.90,NE,42,0.0,1.0,96,0.00,,,0.08,meteohub,2013-09-13 11:19:00,
2013-09-13 05:21:00,57.9,56.8,29.90,NE,42,0.0,1.0,96,0.00,,,0.08,meteohub,2013-09-13 11:21:00,
2013-09-13 05:23:00,57.9,56.8,29.90,NE,42,0.0,2.0,96,0.00,,,0.08,meteohub,2013-09-13 11:23:00,
2013-09-13 05:24:00,57.9,56.8,29.90,NE,42,0.0,2.0,96,0.00,,,0.08,meteohub,2013-09-13 11:24:00,
2013-09-13 05:25:00,57.9,56.8,29.90,NE,42,0.0,2.0,96,0.00,,,0.08,meteohub,2013-09-13 11:25:00,
2013-09-13 05:26:00,57.9,56.8,29.90,NE,42,0.0,2.0,96,0.00,,,0.08,meteohub,2013-09-13 11:26:00,
2013-09-13 05:27:00,57.9,56.8,29.90,NE,42,0.0,2.0,96,0.00,,,0.08,meteohub,2013-09-13 11:27:00,
2013-09-13 05:31:00,57.9,56.8,29.90,NE,42,0.0,2.0,96,0.00,,,0.08,meteohub,2013-09-13 11:31:00,
2013-09-13 05:32:00,57.9,56.8,29.90,NE,42,0.0,2.0,96,0.00,,,0.08,meteohub,2013-09-13 11:32:00,
2013-09-13 05:33:00,57.9,56.8,29.90,NE,42,0.0,2.0,96,0.00,,,0.08,meteohub,2013-09-13 11:33:00,
2013-09-13 05:35:00,57.9,56.8,29.90,NE,42,0.0,2.0,96,0.00,,,0.08,meteohub,2013-09-13 11:35:00,
2013-09-13 05:37:00,57.9,56.8,29.90,NE,42,0.0,1.0,96,0.00,,,0.08,meteohub,2013-09-13 11:37:00,
2013-09-13 05:38:00,57.9,56.8,29.90,NE,42,0.0,1.0,96,0.00,,,0.08,meteohub,2013-09-13 11:38:00,
2013-09-13 05:39:00,57.9,56.8,29.90,NE,42,0.0,1.0,96,0.00,,,0.08,meteohub,2013-09-13 11:39:00,
2013-09-13 05:40:00,57.9,56.8,29.90,NE,42,0.0,1.0,96,0.00,,,0.08,meteohub,2013-09-13 11:40:00,
2013-09-13 05:41:00,57.9,56.8,29.90,NE,42,0.0,1.0,96,0.01,,,0.09,meteohub,2013-09-13 11:41:00,
2013-09-13 05:42:00,57.9,56.8,29.90,NE,42,0.0,0.0,96,0.01,,,0.09,meteohub,2013-09-13 11:42:00,
2013-09-13 05:45:00,57.9,56.8,29.89,NE,42,0.0,0.0,96,0.01,,,0.09,meteohub,2013-09-13 11:45:00,
2013-09-13 05:46:00,57.9,56.8,29.90,NE,42,0.0,0.0,96,0.01,,,0.09,meteohub,2013-09-13 11:46:00,
2013-09-13 05:47:00,57.9,56.8,29.90,NE,42,0.0,0.0,96,0.01,,,0.09,meteohub,2013-09-13 11:47:00,
2013-09-13 05:48:00,57.9,56.8,29.89,NE,42,0.0,0.0,96,0.01,,,0.09,meteohub,2013-09-13 11:48:00,
2013-09-13 05:52:00,57.9,56.8,29.90,NE,42,0.0,1.0,96,0.01,,,0.09,meteohub,2013-09-13 11:52:00,
2013-09-13 05:53:00,57.9,56.8,29.90,NE,42,0.0,1.0,96,0.01,,,0.09,meteohub,2013-09-13 11:53:00,
2013-09-13 05:55:00,57.9,56.8,29.90,NE,42,0.0,1.0,96,0.01,,,0.09,meteohub,2013-09-13 11:55:00,
2013-09-13 05:57:00,57.9,57.0,29.90,NE,42,0.0,1.0,97,0.01,,,0.09,meteohub,2013-09-13 11:57:00,
2013-09-13 05:58:00,57.9,56.8,29.90,NE,42,0.0,1.0,96,0.01,,,0.09,meteohub,2013-09-13 11:58:00,
2013-09-13 05:59:00,57.9,57.0,29.90,NE,42,0.0,1.0,97,0.01,,,0.09,meteohub,2013-09-13 11:59:00,
2013-09-13 06:00:00,57.9,56.8,29.90,NE,42,0.0,1.0,96,0.01,,,0.09,meteohub,2013-09-13 12:00:00,
2013-09-13 06:01:00,57.9,56.8,29.90,NE,42,0.0,1.0,96,0.01,,,0.09,meteohub,2013-09-13 12:01:00,
2013-09-13 06:03:00,57.9,56.8,29.89,NE,42,0.0,1.0,96,0.01,,,0.09,meteohub,2013-09-13 12:03:00,
2013-09-13 06:04:00,57.9,56.8,29.89,NE,42,0.0,1.0,96,0.01,,,0.09,meteohub,2013-09-13 12:04:00,
2013-09-13 06:05:00,57.9,56.8,29.89,NE,42,0.0,1.0,96,0.01,,,0.09,meteohub,2013-09-13 12:05:00,
2013-09-13 06:07:00,57.9,56.8,29.89,NE,42,0.0,0.0,96,0.01,,,0.09,meteohub,2013-09-13 12:07:00,
2013-09-13 06:08:00,57.9,56.8,29.89,NE,42,0.0,0.0,96,0.01,,,0.09,meteohub,2013-09-13 12:08:00,
2013-09-13 06:11:00,57.9,56.8,29.89,NE,42,0.0,0.0,96,0.01,,,0.09,meteohub,2013-09-13 12:11:00,
2013-09-13 06:12:00,57.9,56.8,29.89,NE,42,0.0,0.0,96,0.01,,,0.09,meteohub,2013-09-13 12:12:00,
2013-09-13 06:13:00,57.9,56.8,29.89,NE,42,0.0,0.0,96,0.01,,,0.09,meteohub,2013-09-13 12:13:00,
2013-09-13 06:16:00,57.9,56.8,29.89,NE,42,0.0,0.0,96,0.01,,,0.09,meteohub,2013-09-13 12:16:00,
2013-09-13 06:17:00,57.9,56.8,29.89,NE,42,0.0,0.0,96,0.01,,,0.09,meteohub,2013-09-13 12:17:00,
2013-09-13 06:20:00,57.9,56.8,29.89,NE,42,0.0,0.0,96,0.01,,,0.09,meteohub,2013-09-13 12:20:00,
2013-09-13 06:21:00,57.9,56.8,29.88,NE,42,0.0,0.0,96,0.01,,,0.09,meteohub,2013-09-13 12:21:00,
2013-09-13 06:22:00,57.9,56.8,29.89,NE,42,0.0,0.0,96,0.01,,,0.09,meteohub,2013-09-13 12:22:00,
2013-09-13 06:24:00,57.9,56.8,29.88,NE,42,0.0,0.0,96,0.01,,,0.09,meteohub,2013-09-13 12:24:00,
2013-09-13 06:25:00,57.9,56.8,29.88,NE,42,0.0,0.0,96,0.01,,,0.09,meteohub,2013-09-13 12:25:00,
2013-09-13 06:27:00,57.9,56.8,29.88,NE,42,0.0,0.0,96,0.01,,,0.09,meteohub,2013-09-13 12:27:00,
2013-09-13 06:28:00,57.9,56.8,29.88,NE,42,0.0,0.0,96,0.01,,,0.09,meteohub,2013-09-13 12:28:00,
2013-09-13 06:31:00,57.9,56.8,29.88,NE,42,0.0,0.0,96,0.01,,,0.09,meteohub,2013-09-13 12:31:00,
2013-09-13 06:32:00,57.9,56.8,29.88,NE,42,0.0,0.0,96,0.01,,,0.09,meteohub,2013-09-13 12:32:00,
2013-09-13 06:33:00,57.9,56.8,29.88,NE,42,0.0,0.0,96,0.01,,,0.09,meteohub,2013-09-13 12:33:00,
2013-09-13 06:37:00,57.7,56.7,29.88,NE,42,0.0,0.0,96,0.01,,,0.09,meteohub,2013-09-13 12:37:00,
2013-09-13 06:38:00,57.7,56.7,29.88,NE,42,0.0,0.0,96,0.01,,,0.09,meteohub,2013-09-13 12:38:00,
2013-09-13 06:40:00,57.7,56.7,29.88,NE,42,0.0,1.0,96,0.00,,,0.09,meteohub,2013-09-13 12:40:00,
2013-09-13 06:42:00,57.7,56.7,29.88,NE,42,0.0,1.0,96,0.00,,,0.09,meteohub,2013-09-13 12:42:00,
2013-09-13 06:43:00,57.7,56.7,29.88,NE,42,0.0,1.0,96,0.00,,,0.09,meteohub,2013-09-13 12:43:00,
2013-09-13 06:44:00,57.7,56.7,29.88,NE,42,0.0,1.0,96,0.00,,,0.09,meteohub,2013-09-13 12:44:00,
2013-09-13 06:46:00,57.7,56.7,29.88,NE,42,0.0,1.0,96,0.00,,,0.09,meteohub,2013-09-13 12:46:00,
2013-09-13 06:49:00,57.7,56.7,29.88,NE,42,0.0,1.0,96,0.00,,,0.09,meteohub,2013-09-13 12:49:00,
2013-09-13 06:51:00,57.7,56.7,29.88,NE,42,0.0,2.0,96,0.00,,,0.09,meteohub,2013-09-13 12:51:00,
2013-09-13 06:52:00,57.7,56.7,29.88,NE,42,0.0,2.0,96,0.00,,,0.09,meteohub,2013-09-13 12:52:00,
2013-09-13 06:54:00,57.7,56.7,29.88,NE,42,0.0,2.0,96,0.00,,,0.09,meteohub,2013-09-13 12:54:00,
2013-09-13 06:57:00,57.7,56.7,29.88,NE,42,0.0,2.0,96,0.00,,,0.09,meteohub,2013-09-13 12:57:00,
2013-09-13 06:58:00,57.7,56.7,29.88,NE,42,0.0,2.0,96,0.00,,,0.09,meteohub,2013-09-13 12:58:00,
2013-09-13 07:02:00,57.7,56.8,29.88,NE,42,0.0,0.0,97,0.00,,,0.09,meteohub,2013-09-13 13:02:00,
2013-09-13 07:03:00,57.7,56.8,29.88,NE,42,0.0,0.0,97,0.00,,,0.09,meteohub,2013-09-13 13:03:00,
2013-09-13 07:04:00,57.7,56.8,29.88,NE,42,0.0,0.0,97,0.00,,,0.09,meteohub,2013-09-13 13:04:00,
2013-09-13 07:09:00,57.7,56.8,29.88,NE,42,0.0,0.0,97,0.00,,,0.09,meteohub,2013-09-13 13:09:00,
2013-09-13 07:10:00,57.7,56.8,29.88,NE,42,0.0,0.0,97,0.00,,,0.09,meteohub,2013-09-13 13:10:00,
2013-09-13 07:11:00,57.7,56.8,29.88,NE,42,0.0,0.0,97,0.00,,,0.09,meteohub,2013-09-13 13:11:00,
2013-09-13 07:15:00,57.7,56.8,29.89,NE,42,0.0,0.0,97,0.00,,,0.09,meteohub,2013-09-13 13:15:00,
2013-09-13 07:16:00,57.7,56.8,29.88,NE,42,0.0,0.0,97,0.00,,,0.09,meteohub,2013-09-13 13:16:00,
2013-09-13 07:17:00,57.7,56.8,29.88,NE,42,0.0,0.0,97,0.00,,,0.09,meteohub,2013-09-13 13:17:00,
2013-09-13 07:20:00,57.7,56.7,29.89,NE,42,0.0,0.0,96,0.00,,,0.09,meteohub,2013-09-13 13:20:00,
2013-09-13 07:21:00,57.7,56.7,29.89,NE,42,0.0,0.0,96,0.00,,,0.09,meteohub,2013-09-13 13:21:00,
2013-09-13 07:22:00,57.7,56.7,29.89,NE,42,0.0,0.0,96,0.00,,,0.09,meteohub,2013-09-13 13:22:00,
2013-09-13 07:27:00,57.7,56.7,29.89,NE,42,0.0,0.0,96,0.00,,,0.09,meteohub,2013-09-13 13:27:00,
2013-09-13 07:28:00,57.7,56.8,29.88,NE,42,0.0,0.0,97,0.00,,,0.09,meteohub,2013-09-13 13:28:00,
2013-09-13 07:29:00,57.7,56.7,29.88,NE,42,0.0,0.0,96,0.00,,,0.09,meteohub,2013-09-13 13:29:00,
2013-09-13 07:31:00,57.7,56.8,29.89,NE,42,0.0,0.0,97,0.00,,,0.09,meteohub,2013-09-13 13:31:00,
2013-09-13 07:33:00,57.7,56.8,29.88,NE,42,0.0,0.0,97,0.00,,,0.09,meteohub,2013-09-13 13:33:00,
2013-09-13 07:34:00,57.7,56.8,29.88,NE,42,0.0,0.0,97,0.00,,,0.09,meteohub,2013-09-13 13:34:00,
2013-09-13 07:35:00,57.7,56.8,29.88,NE,42,0.0,0.0,97,0.00,,,0.09,meteohub,2013-09-13 13:35:00,
2013-09-13 07:36:00,57.7,56.8,29.88,NE,42,0.0,0.0,97,0.00,,,0.09,meteohub,2013-09-13 13:36:00,
2013-09-13 07:37:00,57.7,56.8,29.88,NE,42,0.0,0.0,97,0.00,,,0.09,meteohub,2013-09-13 13:37:00,
2013-09-13 07:39:00,57.7,56.8,29.88,NE,42,0.0,0.0,97,0.00,,,0.09,meteohub,2013-09-13 13:39:00,
2013-09-13 07:40:00,57.9,57.0,29.88,NE,42,0.0,0.0,97,0.00,,,0.09,meteohub,2013-09-13 13:40:00,
2013-09-13 07:42:00,57.9,57.0,29.88,NE,42,0.0,0.0,97,0.00,,,0.09,meteohub,2013-09-13 13:42:00,
2013-09-13 07:46:00,57.9,57.0,29.88,NE,42,0.0,0.0,97,0.00,,,0.09,meteohub,2013-09-13 13:46:00,
2013-09-13 07:47:00,57.9,57.0,29.88,NE,42,0.0,0.0,97,0.00,,,0.09,meteohub,2013-09-13 13:47:00,
2013-09-13 07:49:00,58.1,57.2,29.88,NE,42,0.0,0.0,97,0.00,,,0.09,meteohub,2013-09-13 13:49:00,
2013-09-13 07:51:00,58.1,57.2,29.88,NE,42,0.0,0.0,97,0.00,,,0.09,meteohub,2013-09-13 13:51:00,
2013-09-13 07:52:00,58.1,57.2,29.88,NE,42,0.0,0.0,97,0.00,,,0.09,meteohub,2013-09-13 13:52:00,
2013-09-13 07:53:00,58.1,57.2,29.88,NE,42,0.0,0.0,97,0.00,,,0.09,meteohub,2013-09-13 13:53:00,
2013-09-13 07:54:00,58.1,57.2,29.88,NE,42,0.0,0.0,97,0.00,,,0.09,meteohub,2013-09-13 13:54:00,
2013-09-13 07:55:00,58.3,57.4,29.88,NE,42,0.0,0.0,97,0.01,,,0.10,meteohub,2013-09-13 13:55:00,
2013-09-13 07:57:00,58.5,57.6,29.88,NE,42,0.0,0.0,97,0.01,,,0.10,meteohub,2013-09-13 13:57:00,
2013-09-13 07:58:00,58.3,57.4,29.88,NE,42,0.0,0.0,97,0.01,,,0.10,meteohub,2013-09-13 13:58:00,
2013-09-13 07:59:00,58.5,57.6,29.88,NE,42,0.0,0.0,97,0.01,,,0.10,meteohub,2013-09-13 13:59:00,
2013-09-13 08:00:00,58.5,57.6,29.88,NE,42,0.0,0.0,97,0.01,,,0.10,meteohub,2013-09-13 14:00:00,
2013-09-13 08:03:00,58.5,57.6,29.88,NE,42,0.0,0.0,97,0.01,,,0.10,meteohub,2013-09-13 14:03:00,
2013-09-13 08:06:00,58.6,57.7,29.88,NE,42,0.0,0.0,97,0.02,,,0.11,meteohub,2013-09-13 14:06:00,
2013-09-13 08:07:00,58.6,57.7,29.88,NE,42,0.0,0.0,97,0.02,,,0.11,meteohub,2013-09-13 14:07:00,
2013-09-13 08:08:00,58.6,57.7,29.88,NE,42,0.0,0.0,97,0.02,,,0.11,meteohub,2013-09-13 14:08:00,
2013-09-13 08:09:00,58.6,57.7,29.88,NE,42,0.0,0.0,97,0.02,,,0.11,meteohub,2013-09-13 14:09:00,
2013-09-13 08:12:00,58.6,57.7,29.88,NE,42,0.0,0.0,97,0.03,,,0.12,meteohub,2013-09-13 14:12:00,
2013-09-13 08:15:00,58.6,57.7,29.88,NE,42,0.0,0.0,97,0.03,,,0.12,meteohub,2013-09-13 14:15:00,
2013-09-13 08:16:00,58.6,57.7,29.88,NE,42,0.0,0.0,97,0.03,,,0.12,meteohub,2013-09-13 14:16:00,
2013-09-13 08:17:00,58.6,57.7,29.88,NE,42,0.0,0.0,97,0.03,,,0.12,meteohub,2013-09-13 14:17:00,
2013-09-13 08:18:00,58.6,57.7,29.88,NE,42,0.0,0.0,97,0.03,,,0.12,meteohub,2013-09-13 14:18:00,
2013-09-13 08:20:00,58.6,57.7,29.88,NE,42,0.0,0.0,97,0.05,,,0.14,meteohub,2013-09-13 14:20:00,
2013-09-13 08:21:00,58.6,57.7,29.88,NE,42,0.0,0.0,97,0.05,,,0.14,meteohub,2013-09-13 14:21:00,
2013-09-13 08:22:00,58.6,57.7,29.88,NE,42,0.0,0.0,97,0.05,,,0.14,meteohub,2013-09-13 14:22:00,
2013-09-13 08:24:00,58.6,57.7,29.88,NE,42,0.0,0.0,97,0.05,,,0.14,meteohub,2013-09-13 14:24:00,
2013-09-13 08:25:00,58.6,57.7,29.88,NE,42,0.0,0.0,97,0.05,,,0.14,meteohub,2013-09-13 14:25:00,
2013-09-13 08:26:00,58.6,57.7,29.88,NE,42,0.0,0.0,97,0.05,,,0.14,meteohub,2013-09-13 14:26:00,
2013-09-13 08:27:00,58.6,57.7,29.88,NE,42,0.0,0.0,97,0.05,,,0.14,meteohub,2013-09-13 14:27:00,
2013-09-13 08:30:00,58.6,57.7,29.88,NE,42,0.0,0.0,97,0.05,,,0.14,meteohub,2013-09-13 14:30:00,
2013-09-13 08:31:00,58.6,57.7,29.88,NE,42,0.0,1.0,97,0.06,,,0.15,meteohub,2013-09-13 14:31:00,
2013-09-13 08:32:00,58.8,57.9,29.88,NE,42,0.0,1.0,97,0.06,,,0.15,meteohub,2013-09-13 14:32:00,
2013-09-13 08:36:00,58.8,57.9,29.87,NE,42,0.0,1.0,97,0.07,,,0.16,meteohub,2013-09-13 14:36:00,
2013-09-13 08:37:00,58.8,57.9,29.87,NE,42,0.0,1.0,97,0.07,,,0.16,meteohub,2013-09-13 14:37:00,
2013-09-13 08:38:00,58.8,57.9,29.87,NE,42,0.0,1.0,97,0.07,,,0.16,meteohub,2013-09-13 14:38:00,
2013-09-13 08:40:00,58.8,57.9,29.87,NE,42,0.0,0.0,97,0.07,,,0.16,meteohub,2013-09-13 14:40:00,
2013-09-13 08:42:00,58.8,57.9,29.87,NE,42,0.0,0.0,97,0.07,,,0.16,meteohub,2013-09-13 14:42:00,
2013-09-13 08:43:00,58.8,57.9,29.87,NE,42,0.0,0.0,97,0.07,,,0.16,meteohub,2013-09-13 14:43:00,
2013-09-13 08:44:00,58.8,57.9,29.87,NE,42,0.0,0.0,97,0.07,,,0.16,meteohub,2013-09-13 14:44:00,
2013-09-13 08:47:00,59.0,58.1,29.87,NE,42,0.0,1.0,97,0.08,,,0.17,meteohub,2013-09-13 14:47:00,
2013-09-13 08:48:00,59.0,58.1,29.87,NE,42,0.0,1.0,97,0.08,,,0.17,meteohub,2013-09-13 14:48:00,
2013-09-13 08:49:00,59.0,58.1,29.87,NE,42,0.0,1.0,97,0.08,,,0.17,meteohub,2013-09-13 14:49:00,
2013-09-13 08:50:00,59.0,58.1,29.87,NE,42,0.0,1.0,97,0.07,,,0.17,meteohub,2013-09-13 14:50:00,
2013-09-13 08:51:00,59.2,58.3,29.87,NE,42,0.0,1.0,97,0.07,,,0.17,meteohub,2013-09-13 14:51:00,
2013-09-13 08:54:00,59.2,58.3,29.87,NE,43,1.0,1.0,97,0.07,,,0.17,meteohub,2013-09-13 14:54:00,
2013-09-13 08:55:00,59.2,58.3,29.86,NE,43,0.0,1.0,97,0.07,,,0.17,meteohub,2013-09-13 14:55:00,
2013-09-13 08:56:00,59.2,58.3,29.86,NE,43,1.0,2.0,97,0.07,,,0.17,meteohub,2013-09-13 14:56:00,
2013-09-13 08:57:00,59.2,58.3,29.86,NE,42,0.0,2.0,97,0.07,,,0.17,meteohub,2013-09-13 14:57:00,
2013-09-13 08:58:00,59.2,58.3,29.86,NE,42,0.0,2.0,97,0.07,,,0.17,meteohub,2013-09-13 14:58:00,
2013-09-13 09:00:00,59.4,58.5,29.86,NE,42,2.0,2.0,97,0.07,,,0.17,meteohub,2013-09-13 15:00:00,
2013-09-13 09:01:00,59.4,58.5,29.86,NE,42,1.0,2.0,97,0.06,,,0.17,meteohub,2013-09-13 15:01:00,
2013-09-13 09:03:00,59.4,58.5,29.86,NE,42,0.0,2.0,97,0.06,,,0.17,meteohub,2013-09-13 15:03:00,
2013-09-13 09:05:00,59.5,58.6,29.85,NE,42,0.0,2.0,97,0.06,,,0.17,meteohub,2013-09-13 15:05:00,
2013-09-13 09:07:00,59.7,58.8,29.85,East,88,2.0,3.0,97,0.05,,,0.17,meteohub,2013-09-13 15:07:00,
2013-09-13 09:09:00,59.9,59.0,29.86,NE,50,0.0,3.0,97,0.05,,,0.17,meteohub,2013-09-13 15:09:00,
2013-09-13 09:10:00,60.1,59.2,29.86,NE,50,0.0,3.0,97,0.05,,,0.17,meteohub,2013-09-13 15:10:00,
2013-09-13 09:12:00,60.1,59.2,29.86,NE,49,0.0,3.0,97,0.05,,,0.17,meteohub,2013-09-13 15:12:00,
2013-09-13 09:14:00,60.3,59.4,29.86,NE,49,0.0,3.0,97,0.05,,,0.17,meteohub,2013-09-13 15:14:00,
2013-09-13 09:15:00,60.3,59.4,29.86,NE,49,0.0,3.0,97,0.05,,,0.17,meteohub,2013-09-13 15:15:00,
2013-09-13 09:16:00,60.3,59.4,29.86,NE,49,1.0,3.0,97,0.04,,,0.17,meteohub,2013-09-13 15:16:00,
2013-09-13 09:17:00,60.3,59.4,29.86,NE,49,0.0,3.0,97,0.04,,,0.17,meteohub,2013-09-13 15:17:00,
2013-09-13 09:19:00,60.3,59.4,29.86,ENE,61,1.0,3.0,97,0.04,,,0.17,meteohub,2013-09-13 15:19:00,
2013-09-13 09:20:00,60.3,59.4,29.86,ENE,61,0.0,4.0,97,0.03,,,0.17,meteohub,2013-09-13 15:20:00,
2013-09-13 09:22:00,60.4,59.5,29.86,ENE,61,0.0,4.0,97,0.03,,,0.17,meteohub,2013-09-13 15:22:00,
2013-09-13 09:24:00,60.4,59.5,29.86,North,355,0.0,4.0,97,0.03,,,0.17,meteohub,2013-09-13 15:24:00,
2013-09-13 09:25:00,60.4,59.5,29.86,North,355,0.0,4.0,97,0.03,,,0.17,meteohub,2013-09-13 15:25:00,
2013-09-13 09:27:00,60.4,59.5,29.85,ENE,74,4.0,4.0,97,0.03,,,0.17,meteohub,2013-09-13 15:27:00,
2013-09-13 09:28:00,60.4,59.5,29.85,ENE,74,0.0,4.0,97,0.03,,,0.17,meteohub,2013-09-13 15:28:00,
2013-09-13 09:29:00,60.4,59.5,29.85,ENE,76,0.0,4.0,97,0.03,,,0.17,meteohub,2013-09-13 15:29:00,
2013-09-13 09:30:00,60.4,59.5,29.86,ENE,76,0.0,4.0,97,0.02,,,0.17,meteohub,2013-09-13 15:30:00,
2013-09-13 09:31:00,60.4,59.5,29.86,ENE,76,0.0,4.0,97,0.02,,,0.17,meteohub,2013-09-13 15:31:00,
2013-09-13 09:32:00,60.4,59.5,29.86,ENE,76,0.0,4.0,97,0.02,,,0.17,meteohub,2013-09-13 15:32:00,
2013-09-13 09:34:00,60.4,59.5,29.86,ENE,76,0.0,4.0,97,0.02,,,0.17,meteohub,2013-09-13 15:34:00,
2013-09-13 09:35:00,60.4,59.5,29.86,ENE,76,0.0,4.0,97,0.01,,,0.17,meteohub,2013-09-13 15:35:00,
2013-09-13 09:36:00,60.4,59.5,29.86,ENE,76,0.0,4.0,97,0.01,,,0.17,meteohub,2013-09-13 15:36:00,
2013-09-13 09:37:00,60.4,59.5,29.86,ENE,76,0.0,4.0,97,0.01,,,0.17,meteohub,2013-09-13 15:37:00,
2013-09-13 09:40:00,60.4,59.5,29.86,ENE,76,0.0,4.0,97,0.01,,,0.17,meteohub,2013-09-13 15:40:00,
2013-09-13 09:42:00,60.4,59.5,29.86,ENE,76,2.0,4.0,97,0.01,,,0.17,meteohub,2013-09-13 15:42:00,
2013-09-13 09:45:00,60.4,59.5,29.86,South,184,0.0,4.0,97,0.01,,,0.17,meteohub,2013-09-13 15:45:00,
2013-09-13 09:47:00,60.6,59.7,29.86,South,185,0.0,4.0,97,0.00,,,0.17,meteohub,2013-09-13 15:47:00,
2013-09-13 09:50:00,61.0,60.1,29.87,SSW,200,3.0,4.0,97,0.00,,,0.17,meteohub,2013-09-13 15:50:00,
2013-09-13 09:52:00,61.0,60.1,29.87,SW,221,4.0,4.0,97,0.00,,,0.17,meteohub,2013-09-13 15:52:00,
2013-09-13 09:53:00,61.0,60.1,29.87,SW,236,5.0,5.0,97,0.00,,,0.17,meteohub,2013-09-13 15:53:00,
2013-09-13 09:54:00,61.0,60.1,29.87,West,273,2.0,4.0,97,0.00,,,0.17,meteohub,2013-09-13 15:54:00,
2013-09-13 09:55:00,61.0,60.1,29.87,WSW,256,5.0,5.0,97,0.00,,,0.17,meteohub,2013-09-13 15:55:00,
2013-09-13 09:56:00,61.0,60.1,29.86,West,271,2.0,5.0,97,0.00,,,0.17,meteohub,2013-09-13 15:56:00,
2013-09-13 09:57:00,61.0,60.1,29.86,West,271,3.0,5.0,97,0.00,,,0.17,meteohub,2013-09-13 15:57:00,
2013-09-13 09:59:00,61.0,60.1,29.86,West,271,3.0,5.0,97,0.00,,,0.17,meteohub,2013-09-13 15:59:00,
2013-09-13 10:02:00,60.8,59.9,29.86,West,271,2.0,6.0,97,0.00,,,0.17,meteohub,2013-09-13 16:02:00,
2013-09-13 10:04:00,60.8,59.9,29.86,West,271,0.0,6.0,97,0.00,,,0.17,meteohub,2013-09-13 16:04:00,
2013-09-13 10:05:00,60.8,59.9,29.86,West,271,0.0,6.0,97,0.00,,,0.17,meteohub,2013-09-13 16:05:00,
2013-09-13 10:07:00,61.0,60.1,29.85,West,271,0.0,6.0,97,0.00,,,0.17,meteohub,2013-09-13 16:07:00,
2013-09-13 10:09:00,61.0,60.1,29.85,West,271,0.0,6.0,97,0.00,,,0.17,meteohub,2013-09-13 16:09:00,
2013-09-13 10:11:00,61.2,60.3,29.85,West,271,0.0,6.0,97,0.00,,,0.17,meteohub,2013-09-13 16:11:00,
2013-09-13 10:12:00,61.2,60.3,29.85,West,271,0.0,6.0,97,0.00,,,0.17,meteohub,2013-09-13 16:12:00,
2013-09-13 10:13:00,61.2,60.3,29.85,West,271,0.0,6.0,97,0.00,,,0.17,meteohub,2013-09-13 16:13:00,
2013-09-13 10:15:00,61.2,60.3,29.85,West,271,0.0,6.0,97,0.00,,,0.17,meteohub,2013-09-13 16:15:00,
2013-09-13 10:16:00,61.2,60.3,29.85,West,271,0.0,3.0,97,0.00,,,0.17,meteohub,2013-09-13 16:16:00,
2013-09-13 10:17:00,61.2,60.3,29.85,West,271,0.0,3.0,97,0.00,,,0.17,meteohub,2013-09-13 16:17:00,
2013-09-13 10:20:00,61.3,60.4,29.85,West,271,2.0,3.0,97,0.00,,,0.17,meteohub,2013-09-13 16:20:00,
2013-09-13 10:21:00,61.3,60.4,29.86,West,271,1.0,1.0,97,0.00,,,0.17,meteohub,2013-09-13 16:21:00,
2013-09-13 10:23:00,61.2,60.3,29.86,WSW,248,1.0,1.0,97,0.00,,,0.17,meteohub,2013-09-13 16:23:00,
2013-09-13 10:24:00,61.2,60.1,29.86,SSW,202,2.0,2.0,96,0.00,,,0.17,meteohub,2013-09-13 16:24:00,
2013-09-13 10:25:00,61.2,60.1,29.86,South,189,3.0,3.0,96,0.00,,,0.17,meteohub,2013-09-13 16:25:00,
2013-09-13 10:26:00,61.2,60.1,29.86,SW,220,3.0,5.0,96,0.00,,,0.17,meteohub,2013-09-13 16:26:00,
2013-09-13 10:27:00,61.2,60.1,29.86,SW,221,2.0,5.0,96,0.00,,,0.17,meteohub,2013-09-13 16:27:00,
2013-09-13 10:29:00,61.2,60.1,29.86,SSE,155,0.0,5.0,96,0.00,,,0.17,meteohub,2013-09-13 16:29:00,
2013-09-13 10:32:00,61.3,60.3,29.86,SSW,192,0.0,5.0,96,0.00,,,0.17,meteohub,2013-09-13 16:32:00,
2013-09-13 10:34:00,61.3,60.3,29.86,SSW,192,0.0,5.0,96,0.00,,,0.17,meteohub,2013-09-13 16:34:00,
2013-09-13 10:37:00,61.3,60.3,29.85,SSW,192,0.0,5.0,96,0.00,,,0.17,meteohub,2013-09-13 16:37:00,
2013-09-13 10:39:00,61.5,60.4,29.85,SE,124,5.0,5.0,96,0.00,,,0.17,meteohub,2013-09-13 16:39:00,
2013-09-13 10:40:00,61.7,60.6,29.85,SE,124,0.0,5.0,96,0.00,,,0.17,meteohub,2013-09-13 16:40:00,
2013-09-13 10:42:00,61.9,60.8,29.85,SE,124,1.0,5.0,96,0.00,,,0.17,meteohub,2013-09-13 16:42:00,
2013-09-13 10:43:00,61.9,60.8,29.85,SE,124,0.0,5.0,96,0.00,,,0.17,meteohub,2013-09-13 16:43:00,
2013-09-13 10:45:00,62.1,61.0,29.85,SE,124,2.0,5.0,96,0.00,,,0.17,meteohub,2013-09-13 16:45:00,
2013-09-13 10:48:00,61.9,60.8,29.85,SE,124,1.0,5.0,96,0.00,,,0.17,meteohub,2013-09-13 16:48:00,
2013-09-13 10:49:00,61.9,60.8,29.85,SE,124,0.0,5.0,96,0.00,,,0.17,meteohub,2013-09-13 16:49:00,
2013-09-13 10:50:00,61.9,60.8,29.85,SE,130,0.0,5.0,96,0.00,,,0.17,meteohub,2013-09-13 16:50:00,
2013-09-13 10:51:00,61.9,60.8,29.85,SE,131,0.0,5.0,96,0.00,,,0.17,meteohub,2013-09-13 16:51:00,
2013-09-13 10:52:00,61.9,60.8,29.85,SE,131,1.0,5.0,96,0.00,,,0.17,meteohub,2013-09-13 16:52:00,
2013-09-13 10:54:00,61.9,60.4,29.84,SE,140,0.0,5.0,95,0.00,,,0.17,meteohub,2013-09-13 16:54:00,
2013-09-13 10:55:00,61.9,60.4,29.84,SSW,196,0.0,4.0,95,0.00,,,0.17,meteohub,2013-09-13 16:55:00,
2013-09-13 10:56:00,62.1,60.6,29.84,SSE,157,4.0,4.0,95,0.00,,,0.17,meteohub,2013-09-13 16:56:00,
2013-09-13 10:58:00,62.1,60.6,29.84,South,175,2.0,4.0,95,0.00,,,0.17,meteohub,2013-09-13 16:58:00,
2013-09-13 10:59:00,62.2,60.8,29.84,South,175,5.0,5.0,95,0.00,,,0.17,meteohub,2013-09-13 16:59:00,
2013-09-13 11:00:00,62.2,60.8,29.84,South,179,4.0,5.0,95,0.00,,,0.17,meteohub,2013-09-13 17:00:00,
2013-09-13 11:02:00,62.4,61.0,29.84,SSE,154,1.0,5.0,95,0.00,,,0.17,meteohub,2013-09-13 17:02:00,
2013-09-13 11:03:00,62.4,61.0,29.84,South,177,2.0,5.0,95,0.00,,,0.17,meteohub,2013-09-13 17:03:00,
2013-09-13 11:04:00,62.6,61.2,29.84,SSW,192,0.0,5.0,95,0.00,,,0.17,meteohub,2013-09-13 17:04:00,
2013-09-13 11:05:00,62.8,61.3,29.84,SSW,198,2.0,5.0,95,0.00,,,0.17,meteohub,2013-09-13 17:05:00,
2013-09-13 11:06:00,62.8,61.3,29.84,SSW,198,0.0,6.0,95,0.00,,,0.17,meteohub,2013-09-13 17:06:00,
2013-09-13 11:07:00,62.8,61.3,29.84,SSW,198,0.0,6.0,95,0.00,,,0.17,meteohub,2013-09-13 17:07:00,
2013-09-13 11:08:00,63.0,61.5,29.84,SSW,198,0.0,6.0,95,0.00,,,0.17,meteohub,2013-09-13 17:08:00,
2013-09-13 11:12:00,63.1,61.3,29.83,SSW,199,0.0,6.0,94,0.00,,,0.17,meteohub,2013-09-13 17:12:00,
2013-09-13 11:13:00,63.3,61.5,29.83,SSW,202,4.0,6.0,94,0.00,,,0.17,meteohub,2013-09-13 17:13:00,
2013-09-13 11:14:00,63.3,61.5,29.83,SSW,202,3.0,6.0,94,0.00,,,0.17,meteohub,2013-09-13 17:14:00,
2013-09-13 11:15:00,63.5,61.7,29.83,SSW,202,1.0,6.0,94,0.00,,,0.17,meteohub,2013-09-13 17:15:00,
2013-09-13 11:17:00,63.7,61.9,29.83,SSW,202,0.0,6.0,94,0.00,,,0.17,meteohub,2013-09-13 17:17:00,
2013-09-13 11:18:00,63.7,61.7,29.83,SSW,202,0.0,6.0,93,0.00,,,0.17,meteohub,2013-09-13 17:18:00,
2013-09-13 11:19:00,63.7,61.7,29.83,SSW,202,0.0,6.0,93,0.00,,,0.17,meteohub,2013-09-13 17:19:00,
2013-09-13 11:20:00,63.9,61.9,29.83,SSW,202,0.0,5.0,93,0.00,,,0.17,meteohub,2013-09-13 17:20:00,
2013-09-13 11:22:00,64.0,62.1,29.83,SSW,202,0.0,5.0,93,0.00,,,0.17,meteohub,2013-09-13 17:22:00,
2013-09-13 11:23:00,64.0,62.1,29.83,SSW,202,0.0,5.0,93,0.00,,,0.17,meteohub,2013-09-13 17:23:00,
2013-09-13 11:24:00,64.2,61.9,29.83,SSW,202,0.0,5.0,92,0.00,,,0.17,meteohub,2013-09-13 17:24:00,
2013-09-13 11:25:00,64.4,62.1,29.83,SSW,202,2.0,5.0,92,0.00,,,0.17,meteohub,2013-09-13 17:25:00,
2013-09-13 11:29:00,64.8,62.1,29.83,SW,232,3.0,5.0,91,0.00,,,0.17,meteohub,2013-09-13 17:29:00,
2013-09-13 11:30:00,64.8,61.7,29.83,South,174,2.0,5.0,90,0.00,,,0.17,meteohub,2013-09-13 17:30:00,
2013-09-13 11:33:00,65.1,62.1,29.82,South,189,1.0,5.0,90,0.00,,,0.17,meteohub,2013-09-13 17:33:00,
2013-09-13 11:34:00,65.1,61.9,29.82,South,189,0.0,5.0,89,0.00,,,0.17,meteohub,2013-09-13 17:34:00,
2013-09-13 11:36:00,65.3,61.7,29.82,West,260,0.0,5.0,88,0.00,,,0.17,meteohub,2013-09-13 17:36:00,
2013-09-13 11:37:00,65.5,61.9,29.82,SW,218,0.0,5.0,88,0.00,,,0.17,meteohub,2013-09-13 17:37:00,
2013-09-13 11:38:00,65.5,61.5,29.82,South,190,3.0,5.0,87,0.00,,,0.17,meteohub,2013-09-13 17:38:00,
2013-09-13 11:40:00,65.5,61.2,29.82,SSW,196,0.0,5.0,86,0.00,,,0.17,meteohub,2013-09-13 17:40:00,
2013-09-13 11:42:00,65.5,61.2,29.82,SW,225,0.0,5.0,86,0.00,,,0.17,meteohub,2013-09-13 17:42:00,
2013-09-13 11:43:00,65.7,61.3,29.82,SW,228,1.0,5.0,86,0.00,,,0.17,meteohub,2013-09-13 17:43:00,
2013-09-13 11:45:00,65.7,61.7,29.81,SW,228,2.0,5.0,87,0.00,,,0.17,meteohub,2013-09-13 17:45:00,
2013-09-13 11:47:00,65.8,61.9,29.81,SW,215,2.0,5.0,87,0.00,,,0.17,meteohub,2013-09-13 17:47:00,
2013-09-13 11:48:00,65.8,61.5,29.81,SW,215,0.0,5.0,86,0.00,,,0.17,meteohub,2013-09-13 17:48:00,
2013-09-13 11:49:00,65.8,61.2,29.81,SW,215,0.0,5.0,85,0.00,,,0.17,meteohub,2013-09-13 17:49:00,
2013-09-13 11:50:00,65.8,61.2,29.81,SW,215,0.0,5.0,85,0.00,,,0.17,meteohub,2013-09-13 17:50:00,
2013-09-13 11:54:00,66.0,61.0,29.81,SW,226,6.0,6.0,84,0.00,,,0.17,meteohub,2013-09-13 17:54:00,
2013-09-13 11:57:00,66.0,61.0,29.81,SW,220,0.0,6.0,84,0.00,,,0.17,meteohub,2013-09-13 17:57:00,
2013-09-13 11:58:00,66.2,61.2,29.81,SW,220,0.0,6.0,84,0.00,,,0.17,meteohub,2013-09-13 17:58:00,
2013-09-13 11:59:00,66.4,61.7,29.81,SW,220,0.0,6.0,85,0.00,,,0.17,meteohub,2013-09-13 17:59:00,
2013-09-13 12:00:00,66.4,61.7,29.81,SW,220,1.0,6.0,85,0.00,,,0.17,meteohub,2013-09-13 18:00:00,
2013-09-13 12:02:00,66.6,61.5,29.81,SE,132,0.0,7.0,84,0.00,,,0.17,meteohub,2013-09-13 18:02:00,
2013-09-13 12:03:00,66.6,61.0,29.81,SSE,153,1.0,7.0,82,0.00,,,0.17,meteohub,2013-09-13 18:03:00,
2013-09-13 12:04:00,66.6,61.0,29.81,SSE,153,0.0,7.0,82,0.00,,,0.17,meteohub,2013-09-13 18:04:00,
2013-09-13 12:05:00,66.7,61.3,29.81,ESE,120,4.0,7.0,83,0.00,,,0.17,meteohub,2013-09-13 18:05:00,
2013-09-13 12:07:00,66.7,61.3,29.81,SE,125,1.0,7.0,83,0.00,,,0.17,meteohub,2013-09-13 18:07:00,
2013-09-13 12:09:00,66.7,61.0,29.81,SE,127,1.0,7.0,82,0.00,,,0.17,meteohub,2013-09-13 18:09:00,
2013-09-13 12:10:00,66.7,60.8,29.81,SE,125,0.0,6.0,81,0.00,,,0.17,meteohub,2013-09-13 18:10:00,
2013-09-13 12:12:00,66.9,61.2,29.80,SW,219,0.0,6.0,82,0.00,,,0.17,meteohub,2013-09-13 18:12:00,
2013-09-13 12:15:00,67.3,61.9,29.80,SW,219,2.0,6.0,83,0.00,,,0.17,meteohub,2013-09-13 18:15:00,
2013-09-13 12:16:00,67.5,62.1,29.80,SW,219,1.0,4.0,83,0.00,,,0.17,meteohub,2013-09-13 18:16:00,
2013-09-13 12:17:00,67.5,62.1,29.80,SSW,200,2.0,4.0,83,0.00,,,0.17,meteohub,2013-09-13 18:17:00,
2013-09-13 12:19:00,67.6,61.9,29.80,South,189,0.0,4.0,82,0.00,,,0.17,meteohub,2013-09-13 18:19:00,
2013-09-13 12:21:00,67.6,61.5,29.80,SSW,200,0.0,4.0,81,0.00,,,0.17,meteohub,2013-09-13 18:21:00,
2013-09-13 12:22:00,67.6,61.5,29.80,South,180,0.0,4.0,81,0.00,,,0.17,meteohub,2013-09-13 18:22:00,
2013-09-13 12:23:00,67.6,61.5,29.80,South,184,3.0,4.0,81,0.00,,,0.17,meteohub,2013-09-13 18:23:00,
2013-09-13 12:24:00,67.6,61.5,29.80,SSW,200,3.0,4.0,81,0.00,,,0.17,meteohub,2013-09-13 18:24:00,
2013-09-13 12:26:00,67.8,61.7,29.80,South,182,3.0,4.0,81,0.00,,,0.17,meteohub,2013-09-13 18:26:00,
2013-09-13 12:27:00,67.8,61.7,29.80,South,183,0.0,4.0,81,0.00,,,0.17,meteohub,2013-09-13 18:27:00,
2013-09-13 12:29:00,67.8,61.3,29.80,South,180,0.0,4.0,80,0.00,,,0.17,meteohub,2013-09-13 18:29:00,
2013-09-13 12:31:00,68.2,62.1,29.80,SE,131,2.0,5.0,81,0.00,,,0.17,meteohub,2013-09-13 18:31:00,
2013-09-13 12:32:00,68.2,62.1,29.80,SE,132,2.0,5.0,81,0.00,,,0.17,meteohub,2013-09-13 18:32:00,
2013-09-13 12:34:00,68.4,61.9,29.79,SSW,205,0.0,5.0,80,0.00,,,0.17,meteohub,2013-09-13 18:34:00,
2013-09-13 12:37:00,68.5,61.3,29.79,SE,126,0.0,5.0,78,0.00,,,0.17,meteohub,2013-09-13 18:37:00,
2013-09-13 12:39:00,69.1,61.9,29.79,SSE,156,2.0,5.0,78,0.00,,,0.17,meteohub,2013-09-13 18:39:00,
2013-09-13 12:40:00,69.1,61.9,29.79,SE,145,1.0,7.0,78,0.00,,,0.17,meteohub,2013-09-13 18:40:00,
2013-09-13 12:41:00,69.3,62.1,29.79,SSE,152,5.0,7.0,78,0.00,,,0.17,meteohub,2013-09-13 18:41:00,
2013-09-13 12:42:00,69.3,61.7,29.79,South,174,2.0,7.0,77,0.00,,,0.17,meteohub,2013-09-13 18:42:00,
2013-09-13 12:44:00,69.3,61.3,29.79,South,171,0.0,7.0,76,0.00,,,0.17,meteohub,2013-09-13 18:44:00,
2013-09-13 12:45:00,69.3,61.3,29.79,South,171,0.0,7.0,76,0.00,,,0.17,meteohub,2013-09-13 18:45:00,
2013-09-13 12:46:00,69.3,61.0,29.79,South,176,2.0,7.0,75,0.00,,,0.17,meteohub,2013-09-13 18:46:00,
2013-09-13 12:47:00,69.3,61.0,29.79,SSW,196,2.0,7.0,75,0.00,,,0.17,meteohub,2013-09-13 18:47:00,
2013-09-13 12:48:00,69.3,61.7,29.79,SSE,165,1.0,7.0,77,0.00,,,0.17,meteohub,2013-09-13 18:48:00,
2013-09-13 12:49:00,69.4,62.2,29.79,SE,132,0.0,7.0,78,0.00,,,0.17,meteohub,2013-09-13 18:49:00,
2013-09-13 12:51:00,69.4,61.9,29.79,SW,223,0.0,7.0,77,0.00,,,0.17,meteohub,2013-09-13 18:51:00,
2013-09-13 12:52:00,69.4,61.5,29.79,SSW,207,2.0,7.0,76,0.00,,,0.17,meteohub,2013-09-13 18:52:00,
2013-09-13 12:56:00,69.8,61.9,29.78,SSE,153,5.0,6.0,76,0.00,,,0.17,meteohub,2013-09-13 18:56:00,
2013-09-13 12:57:00,70.0,62.1,29.78,SSW,200,2.0,6.0,76,0.00,,,0.17,meteohub,2013-09-13 18:57:00,
2013-09-13 12:58:00,70.2,62.2,29.78,SE,146,1.0,6.0,76,0.00,,,0.17,meteohub,2013-09-13 18:58:00,
2013-09-13 12:59:00,70.2,62.2,29.78,SE,146,0.0,6.0,76,0.00,,,0.17,meteohub,2013-09-13 18:59:00,
2013-09-13 13:02:00,70.3,62.4,29.78,SSE,148,2.0,5.0,76,0.00,,,0.17,meteohub,2013-09-13 19:02:00,
2013-09-13 13:03:00,70.2,61.5,29.78,South,188,0.0,5.0,74,0.00,,,0.17,meteohub,2013-09-13 19:03:00,
2013-09-13 13:04:00,70.2,61.5,29.78,South,188,2.0,5.0,74,0.00,,,0.17,meteohub,2013-09-13 19:04:00,
2013-09-13 13:05:00,70.2,61.5,29.78,South,188,1.0,6.0,74,0.00,,,0.17,meteohub,2013-09-13 19:05:00,
2013-09-13 13:06:00,70.2,61.5,29.78,South,188,0.0,6.0,74,0.00,,,0.17,meteohub,2013-09-13 19:06:00,
2013-09-13 13:09:00,70.2,61.2,29.77,South,188,0.0,6.0,73,0.00,,,0.17,meteohub,2013-09-13 19:09:00,
2013-09-13 13:10:00,70.2,61.2,29.78,South,188,0.0,6.0,73,0.00,,,0.17,meteohub,2013-09-13 19:10:00,
2013-09-13 13:11:00,70.2,61.2,29.78,South,188,0.0,6.0,73,0.00,,,0.17,meteohub,2013-09-13 19:11:00,
2013-09-13 13:12:00,70.2,61.5,29.77,South,188,0.0,6.0,74,0.00,,,0.17,meteohub,2013-09-13 19:12:00,
2013-09-13 13:14:00,70.2,61.2,29.77,South,188,0.0,6.0,73,0.00,,,0.17,meteohub,2013-09-13 19:14:00,
2013-09-13 13:16:00,70.2,61.2,29.77,SSW,197,1.0,6.0,73,0.00,,,0.17,meteohub,2013-09-13 19:16:00,
2013-09-13 13:18:00,70.3,62.4,29.77,SW,216,3.0,6.0,76,0.00,,,0.17,meteohub,2013-09-13 19:18:00,
2013-09-13 13:19:00,70.3,62.4,29.77,SW,235,3.0,6.0,76,0.00,,,0.17,meteohub,2013-09-13 19:19:00,
2013-09-13 13:20:00,70.5,62.2,29.77,SW,235,0.0,6.0,75,0.00,,,0.17,meteohub,2013-09-13 19:20:00,
2013-09-13 13:21:00,70.9,62.6,29.77,SW,235,0.0,4.0,75,0.00,,,0.17,meteohub,2013-09-13 19:21:00,
2013-09-13 13:23:00,71.1,62.4,29.77,SW,235,0.0,4.0,74,0.00,,,0.17,meteohub,2013-09-13 19:23:00,
2013-09-13 13:25:00,71.2,62.1,29.77,WSW,239,2.0,4.0,73,0.00,,,0.17,meteohub,2013-09-13 19:25:00,
2013-09-13 13:28:00,71.4,61.9,29.77,WSW,239,0.0,4.0,72,0.00,,,0.17,meteohub,2013-09-13 19:28:00,
2013-09-13 13:29:00,71.4,61.9,29.76,WSW,239,1.0,4.0,72,0.00,,,0.17,meteohub,2013-09-13 19:29:00,
2013-09-13 13:31:00,71.6,61.7,29.76,WSW,239,2.0,4.0,71,0.00,,,0.17,meteohub,2013-09-13 19:31:00,
2013-09-13 13:34:00,72.0,62.1,29.76,WSW,249,3.0,4.0,71,0.00,,,0.17,meteohub,2013-09-13 19:34:00,
2013-09-13 13:35:00,72.0,62.4,29.76,SSW,205,0.0,4.0,72,0.00,,,0.17,meteohub,2013-09-13 19:35:00,
2013-09-13 13:36:00,72.1,62.6,29.76,SSW,205,0.0,6.0,72,0.00,,,0.17,meteohub,2013-09-13 19:36:00,
2013-09-13 13:37:00,72.1,62.2,29.75,SSW,205,0.0,6.0,71,0.00,,,0.17,meteohub,2013-09-13 19:37:00,
2013-09-13 13:41:00,72.5,63.3,29.75,WSW,239,0.0,6.0,73,0.00,,,0.17,meteohub,2013-09-13 19:41:00,
2013-09-13 13:42:00,72.7,63.1,29.75,WSW,239,0.0,6.0,72,0.00,,,0.17,meteohub,2013-09-13 19:42:00,
2013-09-13 13:45:00,72.9,63.0,29.75,WSW,239,0.0,6.0,71,0.00,,,0.17,meteohub,2013-09-13 19:45:00,
2013-09-13 13:47:00,73.0,63.1,29.75,WSW,239,0.0,6.0,71,0.00,,,0.17,meteohub,2013-09-13 19:47:00,
2013-09-13 13:48:00,73.0,63.5,29.75,WSW,239,0.0,6.0,72,0.00,,,0.17,meteohub,2013-09-13 19:48:00,
2013-09-13 13:50:00,73.2,62.8,29.75,WSW,239,0.0,6.0,70,0.00,,,0.17,meteohub,2013-09-13 19:50:00,
2013-09-13 13:52:00,73.6,64.0,29.75,WSW,239,0.0,2.0,72,0.00,,,0.17,meteohub,2013-09-13 19:52:00,
2013-09-13 13:55:00,73.9,64.8,29.75,WSW,245,2.0,2.0,73,0.00,,,0.17,meteohub,2013-09-13 19:55:00,
2013-09-13 13:56:00,74.1,65.7,29.75,West,259,0.0,3.0,75,0.00,,,0.17,meteohub,2013-09-13 19:56:00,
2013-09-13 13:57:00,74.5,64.9,29.74,West,259,0.0,3.0,72,0.00,,,0.17,meteohub,2013-09-13 19:57:00,
2013-09-13 13:58:00,74.5,64.0,29.74,West,259,0.0,3.0,70,0.00,,,0.17,meteohub,2013-09-13 19:58:00,
2013-09-13 14:00:00,74.7,65.1,29.74,West,259,0.0,3.0,72,0.00,,,0.17,meteohub,2013-09-13 20:00:00,
2013-09-13 14:02:00,74.8,64.4,29.74,NE,45,5.0,5.0,70,0.00,,,0.17,meteohub,2013-09-13 20:02:00,
2013-09-13 14:05:00,74.7,63.3,29.74,NE,44,0.0,4.0,68,0.00,,,0.17,meteohub,2013-09-13 20:05:00,
2013-09-13 14:07:00,74.7,63.3,29.73,NE,42,0.0,5.0,68,0.00,,,0.17,meteohub,2013-09-13 20:07:00,
2013-09-13 14:08:00,74.7,63.9,29.73,NE,42,2.0,5.0,69,0.00,,,0.17,meteohub,2013-09-13 20:08:00,
2013-09-13 14:10:00,74.5,63.7,29.73,NE,42,0.0,5.0,69,0.00,,,0.17,meteohub,2013-09-13 20:10:00,
2013-09-13 14:11:00,74.3,63.1,29.73,NE,42,0.0,5.0,68,0.00,,,0.17,meteohub,2013-09-13 20:11:00,
2013-09-13 14:12:00,74.3,63.1,29.73,NE,42,0.0,5.0,68,0.00,,,0.17,meteohub,2013-09-13 20:12:00,
2013-09-13 14:14:00,74.1,62.4,29.73,NE,46,0.0,5.0,67,0.00,,,0.17,meteohub,2013-09-13 20:14:00,
2013-09-13 14:15:00,74.1,62.4,29.73,NE,46,0.0,5.0,67,0.00,,,0.17,meteohub,2013-09-13 20:15:00,
2013-09-13 14:16:00,74.1,62.4,29.73,NE,47,1.0,5.0,67,0.00,,,0.17,meteohub,2013-09-13 20:16:00,
2013-09-13 14:17:00,74.1,62.4,29.73,NE,47,0.0,5.0,67,0.00,,,0.17,meteohub,2013-09-13 20:17:00,
2013-09-13 14:19:00,74.1,62.4,29.73,NE,51,1.0,5.0,67,0.00,,,0.17,meteohub,2013-09-13 20:19:00,
2013-09-13 14:20:00,74.1,63.3,29.73,NE,51,0.0,3.0,69,0.00,,,0.17,meteohub,2013-09-13 20:20:00,
2013-09-13 14:21:00,74.1,63.3,29.73,NE,51,1.0,3.0,69,0.00,,,0.17,meteohub,2013-09-13 20:21:00,
2013-09-13 14:24:00,74.5,63.7,29.72,NNE,29,2.0,3.0,69,0.00,,,0.17,meteohub,2013-09-13 20:24:00,
2013-09-13 14:27:00,74.7,63.9,29.72,NE,39,0.0,3.0,69,0.00,,,0.17,meteohub,2013-09-13 20:27:00,
2013-09-13 14:28:00,75.0,65.3,29.72,ENE,74,0.0,3.0,72,0.00,,,0.17,meteohub,2013-09-13 20:28:00,
2013-09-13 14:29:00,75.2,65.5,29.72,ENE,73,0.0,3.0,72,0.00,,,0.17,meteohub,2013-09-13 20:29:00,
2013-09-13 14:31:00,75.4,63.7,29.72,ENE,73,0.0,3.0,67,0.00,,,0.17,meteohub,2013-09-13 20:31:00,
2013-09-13 14:32:00,75.6,63.9,29.72,ENE,73,0.0,3.0,67,0.00,,,0.17,meteohub,2013-09-13 20:32:00,
2013-09-13 14:33:00,75.6,63.3,29.72,East,84,1.0,3.0,66,0.00,,,0.17,meteohub,2013-09-13 20:33:00,
2013-09-13 14:35:00,75.7,62.2,29.72,South,178,1.0,3.0,63,0.00,,,0.17,meteohub,2013-09-13 20:35:00,
2013-09-13 14:36:00,75.7,62.2,29.72,South,178,1.0,3.0,63,0.00,,,0.17,meteohub,2013-09-13 20:36:00,
2013-09-13 14:37:00,75.7,61.9,29.72,South,182,0.0,3.0,62,0.00,,,0.17,meteohub,2013-09-13 20:37:00,
2013-09-13 14:38:00,75.7,62.2,29.72,SSW,194,1.0,3.0,63,0.00,,,0.17,meteohub,2013-09-13 20:38:00,
2013-09-13 14:39:00,75.7,61.3,29.72,ESE,117,2.0,3.0,61,0.00,,,0.17,meteohub,2013-09-13 20:39:00,
2013-09-13 14:40:00,75.7,60.8,29.72,ESE,117,0.0,3.0,60,0.00,,,0.17,meteohub,2013-09-13 20:40:00,
2013-09-13 14:42:00,75.7,61.3,29.72,SSW,199,3.0,8.0,61,0.00,,,0.17,meteohub,2013-09-13 20:42:00,
2013-09-13 14:43:00,75.7,61.3,29.72,SSW,199,0.0,8.0,61,0.00,,,0.17,meteohub,2013-09-13 20:43:00,
2013-09-13 14:44:00,75.7,62.8,29.72,SSW,199,1.0,8.0,64,0.00,,,0.17,meteohub,2013-09-13 20:44:00,
2013-09-13 14:45:00,75.9,63.7,29.72,SSW,199,0.0,8.0,66,0.00,,,0.17,meteohub,2013-09-13 20:45:00,
2013-09-13 14:46:00,76.1,63.5,29.72,South,175,0.0,8.0,65,0.00,,,0.17,meteohub,2013-09-13 20:46:00,
2013-09-13 14:47:00,76.3,62.8,29.72,South,175,0.0,8.0,63,0.00,,,0.17,meteohub,2013-09-13 20:47:00,
2013-09-13 14:50:00,76.5,62.4,29.72,South,174,2.0,8.0,62,0.00,,,0.17,meteohub,2013-09-13 20:50:00,
2013-09-13 14:52:00,76.5,62.4,29.72,ESE,123,2.0,5.0,62,0.00,,,0.17,meteohub,2013-09-13 20:52:00,
2013-09-13 14:53:00,76.6,62.6,29.72,SSE,156,0.0,5.0,62,0.00,,,0.17,meteohub,2013-09-13 20:53:00,
2013-09-13 14:54:00,76.6,61.2,29.72,SE,128,4.0,5.0,59,0.00,,,0.17,meteohub,2013-09-13 20:54:00,
2013-09-13 14:55:00,76.6,61.7,29.72,South,179,4.0,6.0,60,0.00,,,0.17,meteohub,2013-09-13 20:55:00,
2013-09-13 14:56:00,76.6,61.7,29.72,South,183,0.0,6.0,60,0.00,,,0.17,meteohub,2013-09-13 20:56:00,
2013-09-13 14:58:00,76.8,61.3,29.72,South,183,0.0,6.0,59,0.00,,,0.17,meteohub,2013-09-13 20:58:00,
2013-09-13 14:59:00,76.8,60.4,29.71,South,173,0.0,6.0,57,0.00,,,0.17,meteohub,2013-09-13 20:59:00,
2013-09-13 15:02:00,76.8,61.3,29.71,ENE,74,0.0,6.0,59,0.00,,,0.17,meteohub,2013-09-13 21:02:00,
2013-09-13 15:03:00,76.8,61.9,29.71,ENE,74,0.0,6.0,60,0.00,,,0.17,meteohub,2013-09-13 21:03:00,
2013-09-13 15:04:00,77.0,62.1,29.71,ENE,74,1.0,6.0,60,0.00,,,0.17,meteohub,2013-09-13 21:04:00,
2013-09-13 15:05:00,76.8,61.9,29.71,ENE,74,0.0,6.0,60,0.00,,,0.17,meteohub,2013-09-13 21:05:00,
2013-09-13 15:08:00,77.0,60.6,29.71,SSE,159,0.0,6.0,57,0.00,,,0.17,meteohub,2013-09-13 21:08:00,
2013-09-13 15:09:00,76.8,61.0,29.71,SSE,159,1.0,6.0,58,0.00,,,0.17,meteohub,2013-09-13 21:09:00,
2013-09-13 15:10:00,77.0,61.2,29.71,SSE,159,0.0,6.0,58,0.00,,,0.17,meteohub,2013-09-13 21:10:00,
2013-09-13 15:11:00,76.8,61.0,29.71,SSE,160,1.0,4.0,58,0.00,,,0.17,meteohub,2013-09-13 21:11:00,
2013-09-13 15:12:00,76.8,60.4,29.70,SSW,208,1.0,4.0,57,0.00,,,0.17,meteohub,2013-09-13 21:12:00,
2013-09-13 15:17:00,76.8,61.0,29.70,SSW,208,0.0,4.0,58,0.00,,,0.17,meteohub,2013-09-13 21:17:00,
2013-09-13 15:18:00,76.8,61.0,29.70,SSW,208,0.0,4.0,58,0.00,,,0.17,meteohub,2013-09-13 21:18:00,
2013-09-13 15:19:00,77.0,62.1,29.70,SSW,208,0.0,4.0,60,0.00,,,0.17,meteohub,2013-09-13 21:19:00,
2013-09-13 15:22:00,77.2,63.7,29.70,SSW,208,0.0,4.0,63,0.00,,,0.17,meteohub,2013-09-13 21:22:00,
2013-09-13 15:23:00,77.4,63.3,29.70,SSW,208,0.0,4.0,62,0.00,,,0.17,meteohub,2013-09-13 21:23:00,
2013-09-13 15:24:00,77.4,63.3,29.70,SSW,208,0.0,4.0,62,0.00,,,0.17,meteohub,2013-09-13 21:24:00,
2013-09-13 15:25:00,77.5,63.5,29.70,NNE,30,3.0,3.0,62,0.00,,,0.17,meteohub,2013-09-13 21:25:00,
2013-09-13 15:27:00,77.5,61.5,29.70,East,86,2.0,2.0,58,0.00,,,0.17,meteohub,2013-09-13 21:27:00,
2013-09-13 15:28:00,77.5,62.6,29.70,ENE,69,1.0,2.0,60,0.00,,,0.17,meteohub,2013-09-13 21:28:00,
2013-09-13 15:29:00,77.5,60.6,29.70,East,92,2.0,2.0,56,0.00,,,0.17,meteohub,2013-09-13 21:29:00,
2013-09-13 15:30:00,77.5,60.6,29.70,East,82,1.0,2.0,56,0.00,,,0.17,meteohub,2013-09-13 21:30:00,
2013-09-13 15:32:00,77.5,60.6,29.70,ENE,57,2.0,7.0,56,0.00,,,0.17,meteohub,2013-09-13 21:32:00,
2013-09-13 15:34:00,77.5,61.2,29.70,East,101,4.0,7.0,57,0.00,,,0.17,meteohub,2013-09-13 21:34:00,
2013-09-13 15:35:00,77.5,60.6,29.70,East,96,1.0,7.0,56,0.00,,,0.17,meteohub,2013-09-13 21:35:00,
2013-09-13 15:37:00,77.5,60.1,29.69,East,101,0.0,7.0,55,0.00,,,0.17,meteohub,2013-09-13 21:37:00,
2013-09-13 15:38:00,77.5,62.6,29.69,NE,34,5.0,7.0,60,0.00,,,0.17,meteohub,2013-09-13 21:38:00,
2013-09-13 15:40:00,77.5,62.1,29.69,NNE,22,2.0,7.0,59,0.00,,,0.17,meteohub,2013-09-13 21:40:00,
2013-09-13 15:44:00,77.5,62.1,29.69,NE,34,0.0,6.0,59,0.00,,,0.17,meteohub,2013-09-13 21:44:00,
2013-09-13 15:45:00,77.5,62.1,29.69,NE,34,0.0,6.0,59,0.00,,,0.17,meteohub,2013-09-13 21:45:00,
2013-09-13 15:46:00,77.5,62.1,29.69,NE,34,0.0,6.0,59,0.00,,,0.17,meteohub,2013-09-13 21:46:00,
2013-09-13 15:50:00,77.7,63.1,29.69,NE,49,4.0,6.0,61,0.00,,,0.17,meteohub,2013-09-13 21:50:00,
2013-09-13 15:51:00,77.7,63.1,29.69,NE,36,3.0,8.0,61,0.00,,,0.17,meteohub,2013-09-13 21:51:00,
2013-09-13 15:52:00,77.7,62.8,29.69,NNE,13,1.0,8.0,60,0.00,,,0.17,meteohub,2013-09-13 21:52:00,
2013-09-13 15:56:00,77.7,62.8,29.69,NE,35,4.0,8.0,60,0.00,,,0.17,meteohub,2013-09-13 21:56:00,
2013-09-13 15:57:00,77.5,63.0,29.69,NNE,27,7.0,8.0,61,0.00,,,0.17,meteohub,2013-09-13 21:57:00,
2013-09-13 15:58:00,77.5,63.0,29.69,NNE,17,3.0,8.0,61,0.00,,,0.17,meteohub,2013-09-13 21:58:00,
2013-09-13 15:59:00,77.5,63.0,29.69,NNE,17,2.0,8.0,61,0.00,,,0.17,meteohub,2013-09-13 21:59:00,
2013-09-13 16:01:00,77.4,63.3,29.69,North,11,0.0,9.0,62,0.00,,,0.17,meteohub,2013-09-13 22:01:00,
2013-09-13 16:02:00,77.4,63.3,29.69,North,11,2.0,9.0,62,0.00,,,0.17,meteohub,2013-09-13 22:02:00,
2013-09-13 16:04:00,77.2,63.1,29.69,NNE,26,4.0,9.0,62,0.00,,,0.17,meteohub,2013-09-13 22:04:00,
2013-09-13 16:05:00,77.2,63.1,29.69,NNE,30,5.0,9.0,62,0.00,,,0.17,meteohub,2013-09-13 22:05:00,
2013-09-13 16:06:00,77.0,63.0,29.69,NE,40,6.0,9.0,62,0.00,,,0.17,meteohub,2013-09-13 22:06:00,
2013-09-13 16:07:00,76.8,62.4,29.69,NNE,13,2.0,9.0,61,0.00,,,0.17,meteohub,2013-09-13 22:07:00,
2013-09-13 16:08:00,76.8,64.2,29.69,NNE,26,3.0,9.0,65,0.00,,,0.17,meteohub,2013-09-13 22:08:00,
2013-09-13 16:09:00,76.8,64.6,29.69,NNE,26,2.0,9.0,66,0.00,,,0.17,meteohub,2013-09-13 22:09:00,
2013-09-13 16:10:00,76.8,64.6,29.69,NE,37,5.0,9.0,66,0.00,,,0.17,meteohub,2013-09-13 22:10:00,
2013-09-13 16:12:00,76.6,62.6,29.69,NNE,19,3.0,9.0,62,0.00,,,0.17,meteohub,2013-09-13 22:12:00,
2013-09-13 16:15:00,76.5,62.4,29.69,NE,39,3.0,9.0,62,0.00,,,0.17,meteohub,2013-09-13 22:15:00,
2013-09-13 16:16:00,76.3,62.2,29.69,NNE,25,8.0,10.0,62,0.00,,,0.17,meteohub,2013-09-13 22:16:00,
2013-09-13 16:17:00,76.1,62.6,29.68,NNE,28,5.0,10.0,63,0.00,,,0.17,meteohub,2013-09-13 22:17:00,
2013-09-13 16:20:00,75.9,61.9,29.69,NNE,30,4.0,10.0,62,0.00,,,0.17,meteohub,2013-09-13 22:20:00,
2013-09-13 16:21:00,75.9,62.8,29.69,North,5,2.0,10.0,64,0.00,,,0.17,meteohub,2013-09-13 22:21:00,
2013-09-13 16:23:00,75.9,63.7,29.69,NNE,22,1.0,10.0,66,0.00,,,0.17,meteohub,2013-09-13 22:23:00,
2013-09-13 16:25:00,75.9,62.8,29.69,North,11,8.0,10.0,64,0.00,,,0.17,meteohub,2013-09-13 22:25:00,
2013-09-13 16:27:00,75.7,62.8,29.69,NE,49,5.0,10.0,64,0.00,,,0.17,meteohub,2013-09-13 22:27:00,
2013-09-13 16:28:00,75.7,62.8,29.68,NNE,17,3.0,10.0,64,0.00,,,0.17,meteohub,2013-09-13 22:28:00,
2013-09-13 16:29:00,75.7,62.8,29.69,NNE,17,3.0,10.0,64,0.00,,,0.17,meteohub,2013-09-13 22:29:00,
2013-09-13 16:31:00,75.7,63.1,29.68,NNE,26,6.0,10.0,65,0.00,,,0.17,meteohub,2013-09-13 22:31:00,
2013-09-13 16:32:00,75.7,62.8,29.68,NNE,17,6.0,10.0,64,0.00,,,0.17,meteohub,2013-09-13 22:32:00,
2013-09-13 16:33:00,75.6,62.1,29.68,NNE,24,6.0,10.0,63,0.00,,,0.17,meteohub,2013-09-13 22:33:00,
2013-09-13 16:35:00,75.6,61.7,29.68,North,9,5.0,12.0,62,0.00,,,0.17,meteohub,2013-09-13 22:35:00,
2013-09-13 16:36:00,75.4,61.5,29.68,NNW,338,3.0,12.0,62,0.00,,,0.17,meteohub,2013-09-13 22:36:00,
2013-09-13 16:39:00,75.0,62.1,29.68,North,355,6.0,12.0,64,0.00,,,0.17,meteohub,2013-09-13 22:39:00,
2013-09-13 16:41:00,74.7,61.2,29.68,NNW,332,5.0,12.0,63,0.00,,,0.17,meteohub,2013-09-13 22:41:00,
2013-09-13 16:43:00,74.5,61.5,29.68,North,0,4.0,12.0,64,0.00,,,0.17,meteohub,2013-09-13 22:43:00,
2013-09-13 16:47:00,73.8,61.3,29.68,North,0,6.0,12.0,65,0.00,,,0.17,meteohub,2013-09-13 22:47:00,
2013-09-13 16:48:00,73.6,61.9,29.68,NNW,347,5.0,12.0,67,0.00,,,0.17,meteohub,2013-09-13 22:48:00,
2013-09-13 16:49:00,73.2,62.1,29.68,NNE,25,6.0,12.0,68,0.00,,,0.17,meteohub,2013-09-13 22:49:00,
2013-09-13 16:51:00,72.7,62.8,29.68,NNW,338,5.0,15.0,71,0.00,,,0.17,meteohub,2013-09-13 22:51:00,
2013-09-13 16:52:00,72.3,62.8,29.68,North,0,6.0,15.0,72,0.00,,,0.17,meteohub,2013-09-13 22:52:00,
2013-09-13 16:54:00,71.8,62.6,29.69,NNE,15,5.0,15.0,73,0.00,,,0.17,meteohub,2013-09-13 22:54:00,
2013-09-13 16:56:00,71.1,62.8,29.69,North,0,2.0,15.0,75,0.03,,,0.20,meteohub,2013-09-13 22:56:00,
2013-09-13 16:58:00,70.5,62.6,29.69,North,5,4.0,15.0,76,0.03,,,0.20,meteohub,2013-09-13 22:58:00,
2013-09-13 16:59:00,70.2,62.2,29.69,NNE,30,4.0,15.0,76,0.03,,,0.20,meteohub,2013-09-13 22:59:00,
2013-09-13 17:00:00,70.0,62.8,29.69,NNW,340,4.0,15.0,78,0.06,,,0.22,meteohub,2013-09-13 23:00:00,
2013-09-13 17:01:00,69.8,62.6,29.69,NNE,17,5.0,15.0,78,0.06,,,0.22,meteohub,2013-09-13 23:01:00,
2013-09-13 17:03:00,69.4,62.6,29.69,North,9,3.0,15.0,79,0.06,,,0.22,meteohub,2013-09-13 23:03:00,
2013-09-13 17:04:00,69.3,62.4,29.69,North,9,0.0,15.0,79,0.06,,,0.22,meteohub,2013-09-13 23:04:00,
2013-09-13 17:05:00,69.1,62.6,29.69,North,9,1.0,9.0,80,0.07,,,0.24,meteohub,2013-09-13 23:05:00,
2013-09-13 17:08:00,68.5,62.4,29.70,NNE,17,5.0,9.0,81,0.07,,,0.24,meteohub,2013-09-13 23:08:00,
2013-09-13 17:09:00,68.5,62.8,29.70,NNE,16,4.0,9.0,82,0.07,,,0.24,meteohub,2013-09-13 23:09:00,
2013-09-13 17:10:00,68.4,62.6,29.70,NNE,18,6.0,9.0,82,0.07,,,0.24,meteohub,2013-09-13 23:10:00,
2013-09-13 17:12:00,68.2,62.4,29.69,NNE,28,5.0,9.0,82,0.11,,,0.28,meteohub,2013-09-13 23:12:00,
2013-09-13 17:14:00,67.8,62.1,29.70,NNE,25,4.0,9.0,82,0.11,,,0.28,meteohub,2013-09-13 23:14:00,
2013-09-13 17:15:00,67.8,62.4,29.70,NNE,25,1.0,7.0,83,0.14,,,0.28,meteohub,2013-09-13 23:15:00,
2013-09-13 17:17:00,67.6,62.2,29.70,NNE,25,0.0,7.0,83,0.14,,,0.28,meteohub,2013-09-13 23:17:00,
2013-09-13 17:19:00,67.5,62.4,29.70,NNE,25,0.0,7.0,84,0.14,,,0.28,meteohub,2013-09-13 23:19:00,
2013-09-13 17:21:00,67.3,62.2,29.70,NNE,25,0.0,7.0,84,0.15,,,0.32,meteohub,2013-09-13 23:21:00,
2013-09-13 17:22:00,67.3,62.2,29.70,NNE,25,0.0,7.0,84,0.15,,,0.32,meteohub,2013-09-13 23:22:00,
2013-09-13 17:25:00,66.9,61.9,29.70,NNE,25,0.0,7.0,84,0.15,,,0.32,meteohub,2013-09-13 23:25:00,
2013-09-13 17:28:00,66.7,62.1,29.70,NNE,25,0.0,5.0,85,0.20,,,0.37,meteohub,2013-09-13 23:28:00,
2013-09-13 17:30:00,66.6,61.9,29.70,NNE,25,0.0,5.0,85,0.20,,,0.37,meteohub,2013-09-13 23:30:00,
2013-09-13 17:31:00,66.6,61.9,29.70,NNE,25,0.0,2.0,85,0.22,,,0.39,meteohub,2013-09-13 23:31:00,
2013-09-13 17:32:00,66.6,61.9,29.70,NNE,25,0.0,2.0,85,0.22,,,0.39,meteohub,2013-09-13 23:32:00,
2013-09-13 17:34:00,66.4,62.1,29.70,NNE,25,0.0,2.0,86,0.22,,,0.39,meteohub,2013-09-13 23:34:00,
2013-09-13 17:36:00,66.4,62.1,29.70,NNE,25,2.0,2.0,86,0.23,,,0.40,meteohub,2013-09-13 23:36:00,
2013-09-13 17:40:00,66.0,62.1,29.70,NNE,25,0.0,2.0,87,0.23,,,0.40,meteohub,2013-09-13 23:40:00,
2013-09-13 17:41:00,66.0,62.1,29.70,NNE,25,0.0,3.0,87,0.25,,,0.42,meteohub,2013-09-13 23:41:00,
2013-09-13 17:42:00,66.0,62.1,29.70,NNE,25,0.0,3.0,87,0.25,,,0.42,meteohub,2013-09-13 23:42:00,
2013-09-13 17:46:00,65.8,62.2,29.70,NNE,25,0.0,3.0,88,0.26,,,0.43,meteohub,2013-09-13 23:46:00,
2013-09-13 17:47:00,65.8,62.2,29.70,NNE,25,0.0,3.0,88,0.26,,,0.43,meteohub,2013-09-13 23:47:00,
2013-09-13 17:48:00,65.8,62.2,29.70,NNE,25,2.0,3.0,88,0.26,,,0.43,meteohub,2013-09-13 23:48:00,
2013-09-13 17:51:00,65.7,62.1,29.69,NNE,25,0.0,3.0,88,0.26,,,0.44,meteohub,2013-09-13 23:51:00,
2013-09-13 17:52:00,65.7,62.1,29.69,NNE,25,0.0,3.0,88,0.26,,,0.44,meteohub,2013-09-13 23:52:00,
2013-09-13 17:55:00,65.5,62.2,29.69,NNE,25,0.0,3.0,89,0.26,,,0.45,meteohub,2013-09-13 23:55:00,
2013-09-13 17:56:00,65.5,62.2,29.69,NNE,26,0.0,3.0,89,0.25,,,0.45,meteohub,2013-09-13 23:56:00,
2013-09-13 17:57:00,65.5,62.2,29.69,NNE,26,0.0,3.0,89,0.25,,,0.45,meteohub,2013-09-13 23:57:00,
2013-09-13 17:58:00,65.5,62.2,29.69,NNE,25,1.0,3.0,89,0.25,,,0.45,meteohub,2013-09-13 23:58:00,
2013-09-13 17:59:00,65.5,62.2,29.69,NNE,25,2.0,3.0,89,0.25,,,0.45,meteohub,2013-09-13 23:59:00,
2013-09-13 18:02:00,65.5,62.2,29.69,NNE,25,1.0,3.0,89,0.22,,,0.45,meteohub,2013-09-14 00:02:00,
2013-09-13 18:03:00,65.5,62.2,29.69,NNE,25,2.0,3.0,89,0.22,,,0.45,meteohub,2013-09-14 00:03:00,
2013-09-13 18:05:00,65.5,62.2,29.69,NNE,25,0.0,3.0,89,0.22,,,0.45,meteohub,2013-09-14 00:05:00,
2013-09-13 18:07:00,65.5,62.4,29.69,NNE,25,0.0,3.0,90,0.19,,,0.45,meteohub,2013-09-14 00:07:00,
2013-09-13 18:09:00,65.5,62.4,29.69,NNE,26,0.0,3.0,90,0.19,,,0.45,meteohub,2013-09-14 00:09:00,
2013-09-13 18:11:00,65.5,62.4,29.69,NNE,26,0.0,3.0,90,0.17,,,0.45,meteohub,2013-09-14 00:11:00,
2013-09-13 18:14:00,65.5,62.4,29.69,NNE,25,1.0,3.0,90,0.17,,,0.45,meteohub,2013-09-14 00:14:00,
2013-09-13 18:15:00,65.5,62.4,29.68,NNE,21,2.0,3.0,90,0.17,,,0.45,meteohub,2013-09-14 00:15:00,
2013-09-13 18:17:00,65.5,62.4,29.69,WNW,298,3.0,3.0,90,0.13,,,0.45,meteohub,2013-09-14 00:17:00,
2013-09-13 18:19:00,65.5,62.8,29.69,WNW,300,3.0,3.0,91,0.13,,,0.45,meteohub,2013-09-14 00:19:00,
2013-09-13 18:21:00,65.5,63.1,29.69,WNW,300,3.0,6.0,92,0.11,,,0.45,meteohub,2013-09-14 00:21:00,
2013-09-13 18:22:00,65.5,63.1,29.69,WNW,300,4.0,6.0,92,0.11,,,0.45,meteohub,2013-09-14 00:22:00,
2013-09-13 18:24:00,65.5,63.1,29.69,WNW,300,3.0,6.0,92,0.11,,,0.45,meteohub,2013-09-14 00:24:00,
2013-09-13 18:26:00,65.5,62.8,29.69,WNW,300,4.0,6.0,91,0.08,,,0.46,meteohub,2013-09-14 00:26:00,
2013-09-13 18:29:00,65.7,63.0,29.69,WNW,298,5.0,6.0,91,0.08,,,0.46,meteohub,2013-09-14 00:29:00,
2013-09-13 18:30:00,65.5,62.8,29.69,WNW,298,4.0,6.0,91,0.08,,,0.46,meteohub,2013-09-14 00:30:00,
2013-09-13 18:31:00,65.5,62.8,29.69,NW,304,4.0,6.0,91,0.06,,,0.46,meteohub,2013-09-14 00:31:00,
2013-09-13 18:33:00,65.5,62.8,29.69,WNW,303,0.0,6.0,91,0.06,,,0.46,meteohub,2013-09-14 00:33:00,
2013-09-13 18:34:00,65.5,62.8,29.69,WNW,303,0.0,6.0,91,0.06,,,0.46,meteohub,2013-09-14 00:34:00,
2013-09-13 18:35:00,65.5,62.8,29.69,WNW,303,1.0,6.0,91,0.06,,,0.46,meteohub,2013-09-14 00:35:00,
2013-09-13 18:36:00,65.5,62.8,29.69,WNW,303,1.0,6.0,91,0.05,,,0.46,meteohub,2013-09-14 00:36:00,
2013-09-13 18:37:00,65.5,62.8,29.69,WNW,303,2.0,6.0,91,0.05,,,0.46,meteohub,2013-09-14 00:37:00,
2013-09-13 18:39:00,65.3,62.6,29.69,WNW,303,2.0,6.0,91,0.05,,,0.46,meteohub,2013-09-14 00:39:00,
2013-09-13 18:40:00,65.1,62.4,29.69,WNW,303,2.0,6.0,91,0.05,,,0.46,meteohub,2013-09-14 00:40:00,
2013-09-13 18:42:00,65.1,62.4,29.69,WNW,303,4.0,6.0,91,0.04,,,0.46,meteohub,2013-09-14 00:42:00,
2013-09-13 18:43:00,65.1,62.4,29.69,WNW,303,0.0,6.0,91,0.04,,,0.46,meteohub,2013-09-14 00:43:00,
2013-09-13 18:44:00,65.1,62.4,29.69,WNW,303,0.0,6.0,91,0.04,,,0.46,meteohub,2013-09-14 00:44:00,
2013-09-13 18:46:00,64.9,62.2,29.69,WNW,303,0.0,5.0,91,0.02,,,0.46,meteohub,2013-09-14 00:46:00,
2013-09-13 18:47:00,64.9,62.2,29.69,WNW,303,0.0,5.0,91,0.02,,,0.46,meteohub,2013-09-14 00:47:00,
2013-09-13 18:48:00,64.9,62.2,29.69,WNW,303,0.0,5.0,91,0.02,,,0.46,meteohub,2013-09-14 00:48:00,
2013-09-13 18:49:00,64.8,62.1,29.69,WNW,303,2.0,5.0,91,0.02,,,0.46,meteohub,2013-09-14 00:49:00,
2013-09-13 18:50:00,64.8,62.1,29.69,WNW,303,2.0,5.0,91,0.02,,,0.46,meteohub,2013-09-14 00:50:00,
2013-09-13 18:54:00,64.8,62.1,29.69,WNW,303,3.0,5.0,91,0.02,,,0.46,meteohub,2013-09-14 00:54:00,
2013-09-13 18:55:00,64.6,61.9,29.69,WNW,303,5.0,5.0,91,0.01,,,0.46,meteohub,2013-09-14 00:55:00,
2013-09-13 18:56:00,64.6,61.9,29.69,WNW,303,4.0,5.0,91,0.01,,,0.46,meteohub,2013-09-14 00:56:00,
2013-09-13 18:57:00,64.6,61.9,29.69,WNW,295,4.0,5.0,91,0.01,,,0.46,meteohub,2013-09-14 00:57:00,
2013-09-13 18:59:00,64.4,61.3,29.69,WNW,292,4.0,5.0,90,0.01,,,0.46,meteohub,2013-09-14 00:59:00,
2013-09-13 19:02:00,64.2,61.2,29.70,West,273,3.0,9.0,90,0.01,,,0.46,meteohub,2013-09-14 01:02:00,
2013-09-13 19:04:00,63.9,60.8,29.70,West,271,3.0,9.0,90,0.01,,,0.46,meteohub,2013-09-14 01:04:00,
2013-09-13 19:07:00,63.9,60.8,29.70,West,280,2.0,9.0,90,0.01,,,0.46,meteohub,2013-09-14 01:07:00,
2013-09-13 19:09:00,63.7,60.6,29.70,West,280,1.0,9.0,90,0.01,,,0.46,meteohub,2013-09-14 01:09:00,
2013-09-13 19:10:00,63.7,60.6,29.70,West,280,2.0,9.0,90,0.01,,,0.46,meteohub,2013-09-14 01:10:00,
2013-09-13 19:11:00,63.7,60.6,29.70,West,280,2.0,9.0,90,0.01,,,0.46,meteohub,2013-09-14 01:11:00,
2013-09-13 19:12:00,63.5,60.4,29.70,West,280,1.0,9.0,90,0.01,,,0.46,meteohub,2013-09-14 01:12:00,
2013-09-13 19:13:00,63.5,60.4,29.70,West,280,0.0,9.0,90,0.01,,,0.46,meteohub,2013-09-14 01:13:00,
2013-09-13 19:15:00,63.3,60.3,29.70,West,280,0.0,7.0,90,0.01,,,0.46,meteohub,2013-09-14 01:15:00,
2013-09-13 19:17:00,63.3,60.3,29.70,West,280,0.0,7.0,90,0.01,,,0.46,meteohub,2013-09-14 01:17:00,
2013-09-13 19:19:00,63.3,60.3,29.70,West,280,0.0,7.0,90,0.01,,,0.46,meteohub,2013-09-14 01:19:00,
2013-09-13 19:22:00,63.3,60.3,29.70,West,280,0.0,4.0,90,0.01,,,0.46,meteohub,2013-09-14 01:22:00,
2013-09-13 19:24:00,63.3,60.3,29.70,West,280,3.0,4.0,90,0.01,,,0.46,meteohub,2013-09-14 01:24:00,
2013-09-13 19:25:00,63.3,60.3,29.70,West,280,3.0,4.0,90,0.01,,,0.46,meteohub,2013-09-14 01:25:00,
2013-09-13 19:27:00,63.3,60.3,29.70,West,280,4.0,4.0,90,0.00,,,0.46,meteohub,2013-09-14 01:27:00,
2013-09-13 19:29:00,63.3,60.6,29.70,West,279,4.0,4.0,91,0.00,,,0.46,meteohub,2013-09-14 01:29:00,
2013-09-13 19:30:00,63.3,61.0,29.70,SSW,209,4.0,4.0,92,0.00,,,0.46,meteohub,2013-09-14 01:30:00,
2013-09-13 19:31:00,63.3,60.6,29.70,SSW,209,0.0,4.0,91,0.00,,,0.46,meteohub,2013-09-14 01:31:00,
2013-09-13 19:35:00,63.3,60.6,29.70,SSW,209,2.0,4.0,91,0.00,,,0.46,meteohub,2013-09-14 01:35:00,
2013-09-13 19:36:00,63.3,60.6,29.70,SSW,210,3.0,5.0,91,0.00,,,0.46,meteohub,2013-09-14 01:36:00,
2013-09-13 19:37:00,63.3,60.6,29.70,SSW,210,4.0,5.0,91,0.00,,,0.46,meteohub,2013-09-14 01:37:00,
2013-09-13 19:39:00,63.3,60.6,29.70,SSW,210,2.0,5.0,91,0.00,,,0.46,meteohub,2013-09-14 01:39:00,
2013-09-13 19:42:00,63.3,60.6,29.70,SSW,210,0.0,5.0,91,0.00,,,0.46,meteohub,2013-09-14 01:42:00,
2013-09-13 19:44:00,63.3,60.6,29.70,SSW,210,0.0,5.0,91,0.00,,,0.46,meteohub,2013-09-14 01:44:00,
2013-09-13 19:45:00,63.3,60.6,29.70,SSW,210,0.0,5.0,91,0.00,,,0.46,meteohub,2013-09-14 01:45:00,
2013-09-13 19:47:00,63.3,60.6,29.70,SSW,210,0.0,4.0,91,0.00,,,0.46,meteohub,2013-09-14 01:47:00,
2013-09-13 19:48:00,63.3,60.6,29.70,SSW,210,0.0,4.0,91,0.00,,,0.46,meteohub,2013-09-14 01:48:00,
2013-09-13 19:49:00,63.3,60.6,29.70,SSW,210,0.0,4.0,91,0.00,,,0.46,meteohub,2013-09-14 01:49:00,
2013-09-13 19:50:00,63.3,60.6,29.70,SSW,210,0.0,4.0,91,0.00,,,0.46,meteohub,2013-09-14 01:50:00,
2013-09-13 19:54:00,63.1,60.4,29.70,SSW,210,0.0,4.0,91,0.00,,,0.46,meteohub,2013-09-14 01:54:00,
2013-09-13 19:56:00,63.1,60.4,29.70,SSW,210,0.0,3.0,91,0.00,,,0.46,meteohub,2013-09-14 01:56:00,
2013-09-13 19:58:00,63.1,60.4,29.70,SSW,210,0.0,3.0,91,0.00,,,0.46,meteohub,2013-09-14 01:58:00,
2013-09-13 19:59:00,63.1,60.4,29.70,SSW,210,0.0,3.0,91,0.00,,,0.46,meteohub,2013-09-14 01:59:00,
2013-09-13 20:00:00,63.1,60.4,29.70,SSW,210,0.0,3.0,91,0.00,,,0.46,meteohub,2013-09-14 02:00:00,
2013-09-13 20:01:00,63.1,60.4,29.70,SSW,210,0.0,1.0,91,0.01,,,0.47,meteohub,2013-09-14 02:01:00,
2013-09-13 20:03:00,63.1,60.8,29.70,SSW,210,0.0,1.0,92,0.01,,,0.47,meteohub,2013-09-14 02:03:00,
2013-09-13 20:04:00,63.1,60.8,29.70,SSW,210,0.0,1.0,92,0.01,,,0.47,meteohub,2013-09-14 02:04:00,
2013-09-13 20:06:00,63.1,60.8,29.70,SSW,210,0.0,1.0,92,0.01,,,0.47,meteohub,2013-09-14 02:06:00,
2013-09-13 20:07:00,63.1,60.8,29.70,SSW,210,0.0,1.0,92,0.01,,,0.47,meteohub,2013-09-14 02:07:00,
2013-09-13 20:08:00,63.1,60.8,29.70,SSW,210,3.0,3.0,92,0.01,,,0.47,meteohub,2013-09-14 02:08:00,
2013-09-13 20:10:00,63.1,60.8,29.71,SSW,203,4.0,4.0,92,0.01,,,0.47,meteohub,2013-09-14 02:10:00,
2013-09-13 20:11:00,63.1,60.8,29.71,SSW,203,1.0,3.0,92,0.01,,,0.47,meteohub,2013-09-14 02:11:00,
2013-09-13 20:13:00,63.1,60.8,29.71,SSW,203,2.0,3.0,92,0.01,,,0.47,meteohub,2013-09-14 02:13:00,
2013-09-13 20:14:00,63.1,60.8,29.71,SSW,203,3.0,3.0,92,0.01,,,0.47,meteohub,2013-09-14 02:14:00,
2013-09-13 20:16:00,63.0,60.6,29.71,SSW,203,2.0,5.0,92,0.01,,,0.47,meteohub,2013-09-14 02:16:00,
2013-09-13 20:17:00,63.0,60.6,29.71,SSW,203,3.0,5.0,92,0.01,,,0.47,meteohub,2013-09-14 02:17:00,
2013-09-13 20:19:00,63.0,60.6,29.71,SSW,203,2.0,5.0,92,0.01,,,0.47,meteohub,2013-09-14 02:19:00,
2013-09-13 20:20:00,63.0,60.6,29.71,SSW,203,3.0,5.0,92,0.01,,,0.47,meteohub,2013-09-14 02:20:00,
2013-09-13 20:24:00,63.0,60.6,29.71,SSW,205,3.0,5.0,92,0.01,,,0.47,meteohub,2013-09-14 02:24:00,
2013-09-13 20:26:00,63.0,60.6,29.72,SSW,209,3.0,5.0,92,0.01,,,0.47,meteohub,2013-09-14 02:26:00,
2013-09-13 20:27:00,63.0,60.6,29.72,SSW,209,2.0,5.0,92,0.01,,,0.47,meteohub,2013-09-14 02:27:00,
2013-09-13 20:28:00,63.0,61.0,29.72,SSW,209,2.0,5.0,93,0.01,,,0.47,meteohub,2013-09-14 02:28:00,
2013-09-13 20:31:00,63.0,61.0,29.72,SSW,209,3.0,5.0,93,0.01,,,0.47,meteohub,2013-09-14 02:31:00,
2013-09-13 20:32:00,63.0,61.0,29.72,SSW,209,2.0,5.0,93,0.01,,,0.47,meteohub,2013-09-14 02:32:00,
2013-09-13 20:33:00,63.0,61.0,29.72,SSW,209,4.0,5.0,93,0.01,,,0.47,meteohub,2013-09-14 02:33:00,
2013-09-13 20:34:00,63.0,61.0,29.72,SSW,209,2.0,5.0,93,0.01,,,0.47,meteohub,2013-09-14 02:34:00,
2013-09-13 20:37:00,63.1,61.2,29.72,SW,218,2.0,5.0,93,0.01,,,0.47,meteohub,2013-09-14 02:37:00,
2013-09-13 20:39:00,63.1,61.2,29.72,SW,218,3.0,5.0,93,0.01,,,0.47,meteohub,2013-09-14 02:39:00,
2013-09-13 20:40:00,63.1,61.2,29.72,SW,218,2.0,5.0,93,0.01,,,0.47,meteohub,2013-09-14 02:40:00,
2013-09-13 20:42:00,63.1,61.2,29.71,SW,218,0.0,5.0,93,0.01,,,0.47,meteohub,2013-09-14 02:42:00,
2013-09-13 20:43:00,63.1,61.2,29.71,SW,218,0.0,5.0,93,0.01,,,0.47,meteohub,2013-09-14 02:43:00,
2013-09-13 20:44:00,63.1,61.2,29.71,SW,218,0.0,5.0,93,0.01,,,0.47,meteohub,2013-09-14 02:44:00,
2013-09-13 20:45:00,63.1,61.2,29.71,SW,218,0.0,5.0,93,0.01,,,0.47,meteohub,2013-09-14 02:45:00,
2013-09-13 20:47:00,63.0,61.0,29.71,SW,218,0.0,5.0,93,0.01,,,0.47,meteohub,2013-09-14 02:47:00,
2013-09-13 20:48:00,63.0,61.0,29.71,SW,218,0.0,5.0,93,0.01,,,0.47,meteohub,2013-09-14 02:48:00,
2013-09-13 20:50:00,63.0,61.0,29.71,SW,218,0.0,5.0,93,0.01,,,0.47,meteohub,2013-09-14 02:50:00,
2013-09-13 20:52:00,63.0,61.0,29.71,SW,218,0.0,4.0,93,0.01,,,0.47,meteohub,2013-09-14 02:52:00,
2013-09-13 20:53:00,63.0,61.0,29.71,SW,218,0.0,4.0,93,0.01,,,0.47,meteohub,2013-09-14 02:53:00,
2013-09-13 20:54:00,63.0,61.0,29.71,SW,218,1.0,4.0,93,0.01,,,0.47,meteohub,2013-09-14 02:54:00,
2013-09-13 20:57:00,63.0,61.0,29.72,SW,218,0.0,2.0,93,0.01,,,0.47,meteohub,2013-09-14 02:57:00,
2013-09-13 20:58:00,62.8,60.8,29.71,SW,218,0.0,2.0,93,0.01,,,0.47,meteohub,2013-09-14 02:58:00,
2013-09-13 21:02:00,62.8,60.8,29.72,SW,218,0.0,1.0,93,0.00,,,0.47,meteohub,2013-09-14 03:02:00,
2013-09-13 21:04:00,62.8,60.8,29.72,SW,218,0.0,1.0,93,0.00,,,0.47,meteohub,2013-09-14 03:04:00,
2013-09-13 21:07:00,62.6,60.6,29.72,SW,218,0.0,1.0,93,0.00,,,0.47,meteohub,2013-09-14 03:07:00,
2013-09-13 21:08:00,62.6,60.6,29.72,SW,218,0.0,1.0,93,0.00,,,0.47,meteohub,2013-09-14 03:08:00,
2013-09-13 21:09:00,62.6,60.6,29.72,SW,218,0.0,1.0,93,0.00,,,0.47,meteohub,2013-09-14 03:09:00,
2013-09-13 21:11:00,62.4,60.4,29.72,SW,218,2.0,0.0,93,0.00,,,0.47,meteohub,2013-09-14 03:11:00,
2013-09-13 21:12:00,62.4,60.4,29.72,SW,218,1.0,0.0,93,0.00,,,0.47,meteohub,2013-09-14 03:12:00,
2013-09-13 21:13:00,62.4,60.4,29.72,SW,218,0.0,0.0,93,0.00,,,0.47,meteohub,2013-09-14 03:13:00,
2013-09-13 21:15:00,62.4,60.4,29.72,SW,218,0.0,0.0,93,0.00,,,0.47,meteohub,2013-09-14 03:15:00,
2013-09-13 21:16:00,62.4,60.4,29.72,SW,218,0.0,3.0,93,0.00,,,0.47,meteohub,2013-09-14 03:16:00,
2013-09-13 21:18:00,62.4,60.4,29.72,SW,218,2.0,3.0,93,0.00,,,0.47,meteohub,2013-09-14 03:18:00,
2013-09-13 21:20:00,62.4,60.4,29.72,SW,218,0.0,3.0,93,0.00,,,0.47,meteohub,2013-09-14 03:20:00,
2013-09-13 21:22:00,62.4,60.4,29.72,SW,218,0.0,3.0,93,0.00,,,0.47,meteohub,2013-09-14 03:22:00,
2013-09-13 21:23:00,62.4,60.4,29.72,SW,218,0.0,3.0,93,0.00,,,0.47,meteohub,2013-09-14 03:23:00,
2013-09-13 21:24:00,62.4,60.4,29.72,SW,218,0.0,3.0,93,0.00,,,0.47,meteohub,2013-09-14 03:24:00,
2013-09-13 21:25:00,62.2,60.3,29.72,SW,218,0.0,3.0,93,0.00,,,0.47,meteohub,2013-09-14 03:25:00,
2013-09-13 21:27:00,62.2,60.3,29.72,SW,218,0.0,3.0,93,0.00,,,0.47,meteohub,2013-09-14 03:27:00,
2013-09-13 21:29:00,62.2,60.3,29.72,SW,218,0.0,3.0,93,0.00,,,0.47,meteohub,2013-09-14 03:29:00,
2013-09-13 21:30:00,62.2,60.3,29.72,SW,218,2.0,3.0,93,0.00,,,0.47,meteohub,2013-09-14 03:30:00,
2013-09-13 21:31:00,62.2,60.3,29.72,SW,218,0.0,3.0,93,0.00,,,0.47,meteohub,2013-09-14 03:31:00,
2013-09-13 21:32:00,62.2,60.3,29.72,SW,218,2.0,3.0,93,0.00,,,0.47,meteohub,2013-09-14 03:32:00,
2013-09-13 21:34:00,62.2,60.3,29.72,SW,218,0.0,3.0,93,0.00,,,0.47,meteohub,2013-09-14 03:34:00,
2013-09-13 21:35:00,62.2,60.3,29.72,SW,218,0.0,3.0,93,0.00,,,0.47,meteohub,2013-09-14 03:35:00,
2013-09-13 21:37:00,62.1,60.1,29.72,SW,218,3.0,3.0,93,0.00,,,0.47,meteohub,2013-09-14 03:37:00,
2013-09-13 21:39:00,62.1,60.1,29.72,SW,220,3.0,3.0,93,0.00,,,0.47,meteohub,2013-09-14 03:39:00,
2013-09-13 21:42:00,62.1,60.1,29.72,WSW,250,1.0,2.0,93,0.00,,,0.47,meteohub,2013-09-14 03:42:00,
2013-09-13 21:43:00,62.1,60.1,29.72,WSW,250,0.0,2.0,93,0.00,,,0.47,meteohub,2013-09-14 03:43:00,
2013-09-13 21:44:00,62.1,60.1,29.72,WSW,250,2.0,2.0,93,0.00,,,0.47,meteohub,2013-09-14 03:44:00,
2013-09-13 21:45:00,62.1,60.1,29.72,WSW,250,0.0,2.0,93,0.00,,,0.47,meteohub,2013-09-14 03:45:00,
2013-09-13 21:49:00,61.9,59.9,29.72,WSW,250,0.0,4.0,93,0.00,,,0.47,meteohub,2013-09-14 03:49:00,
2013-09-13 21:50:00,61.9,59.9,29.72,WSW,250,1.0,4.0,93,0.00,,,0.47,meteohub,2013-09-14 03:50:00,
2013-09-13 21:51:00,61.9,59.9,29.72,WSW,250,0.0,4.0,93,0.00,,,0.47,meteohub,2013-09-14 03:51:00,
2013-09-13 21:53:00,61.9,59.9,29.72,WSW,250,0.0,4.0,93,0.00,,,0.47,meteohub,2013-09-14 03:53:00,
2013-09-13 21:55:00,61.9,59.9,29.72,WSW,250,1.0,4.0,93,0.00,,,0.47,meteohub,2013-09-14 03:55:00,
2013-09-13 21:57:00,61.7,59.7,29.72,WSW,250,3.0,3.0,93,0.00,,,0.47,meteohub,2013-09-14 03:57:00,
2013-09-13 22:01:00,61.5,59.5,29.72,WSW,250,2.0,3.0,93,0.00,,,0.47,meteohub,2013-09-14 04:01:00,
2013-09-13 22:02:00,61.5,59.5,29.72,WSW,250,1.0,3.0,93,0.00,,,0.47,meteohub,2013-09-14 04:02:00,
2013-09-13 22:03:00,61.5,59.5,29.72,WSW,250,1.0,3.0,93,0.00,,,0.47,meteohub,2013-09-14 04:03:00,
2013-09-13 22:05:00,61.5,59.5,29.72,WSW,250,3.0,4.0,93,0.00,,,0.47,meteohub,2013-09-14 04:05:00,
2013-09-13 22:07:00,61.5,59.5,29.72,WSW,250,4.0,4.0,93,0.00,,,0.47,meteohub,2013-09-14 04:07:00,
2013-09-13 22:09:00,61.3,59.4,29.72,WSW,250,3.0,4.0,93,0.00,,,0.47,meteohub,2013-09-14 04:09:00,
2013-09-13 22:12:00,61.3,59.4,29.72,WSW,251,1.0,4.0,93,0.00,,,0.47,meteohub,2013-09-14 04:12:00,
2013-09-13 22:14:00,61.2,59.2,29.72,WSW,251,2.0,4.0,93,0.00,,,0.47,meteohub,2013-09-14 04:14:00,
2013-09-13 22:15:00,61.2,59.2,29.72,West,261,2.0,4.0,93,0.00,,,0.47,meteohub,2013-09-14 04:15:00,
2013-09-13 22:17:00,61.2,59.2,29.72,West,261,3.0,4.0,93,0.00,,,0.47,meteohub,2013-09-14 04:17:00,
2013-09-13 22:18:00,61.0,59.0,29.72,West,261,2.0,4.0,93,0.00,,,0.47,meteohub,2013-09-14 04:18:00,
2013-09-13 22:21:00,60.8,58.8,29.72,West,269,1.0,5.0,93,0.00,,,0.47,meteohub,2013-09-14 04:21:00,
2013-09-13 22:22:00,60.6,58.6,29.72,West,269,2.0,5.0,93,0.00,,,0.47,meteohub,2013-09-14 04:22:00,
2013-09-13 22:23:00,60.6,58.6,29.73,West,269,0.0,5.0,93,0.00,,,0.47,meteohub,2013-09-14 04:23:00,
2013-09-13 22:27:00,60.4,58.5,29.73,West,269,2.0,5.0,93,0.00,,,0.47,meteohub,2013-09-14 04:27:00,
2013-09-13 22:28:00,60.4,58.5,29.73,West,269,3.0,5.0,93,0.00,,,0.47,meteohub,2013-09-14 04:28:00,
2013-09-13 22:30:00,60.3,58.3,29.73,West,269,3.0,5.0,93,0.00,,,0.47,meteohub,2013-09-14 04:30:00,
2013-09-13 22:33:00,60.3,58.3,29.73,West,270,3.0,5.0,93,0.00,,,0.47,meteohub,2013-09-14 04:33:00,
2013-09-13 22:34:00,60.3,58.3,29.73,West,270,3.0,5.0,93,0.00,,,0.47,meteohub,2013-09-14 04:34:00,
2013-09-13 22:36:00,60.1,58.1,29.73,West,271,3.0,5.0,93,0.00,,,0.47,meteohub,2013-09-14 04:36:00,
2013-09-13 22:37:00,60.1,58.1,29.73,West,271,2.0,5.0,93,0.00,,,0.47,meteohub,2013-09-14 04:37:00,
2013-09-13 22:39:00,60.1,58.1,29.73,West,271,1.0,5.0,93,0.00,,,0.47,meteohub,2013-09-14 04:39:00,
2013-09-13 22:42:00,59.7,57.7,29.73,West,271,1.0,5.0,93,0.00,,,0.47,meteohub,2013-09-14 04:42:00,
2013-09-13 22:43:00,59.7,57.7,29.73,West,271,3.0,5.0,93,0.00,,,0.47,meteohub,2013-09-14 04:43:00,
2013-09-13 22:44:00,59.7,57.7,29.72,West,271,4.0,5.0,93,0.00,,,0.47,meteohub,2013-09-14 04:44:00,
2013-09-13 22:45:00,59.5,57.6,29.72,West,271,3.0,5.0,93,0.00,,,0.47,meteohub,2013-09-14 04:45:00,
2013-09-13 22:46:00,59.5,57.6,29.72,West,271,2.0,5.0,93,0.00,,,0.47,meteohub,2013-09-14 04:46:00,
2013-09-13 22:48:00,59.5,57.6,29.72,West,271,3.0,5.0,93,0.00,,,0.47,meteohub,2013-09-14 04:48:00,
2013-09-13 22:49:00,59.5,57.6,29.72,West,271,2.0,5.0,93,0.00,,,0.47,meteohub,2013-09-14 04:49:00,
2013-09-13 22:50:00,59.5,57.6,29.72,West,271,2.0,4.0,93,0.00,,,0.47,meteohub,2013-09-14 04:50:00,
2013-09-13 22:51:00,59.5,57.6,29.72,West,271,0.0,4.0,93,0.00,,,0.47,meteohub,2013-09-14 04:51:00,
2013-09-13 22:54:00,59.4,57.4,29.72,West,271,0.0,4.0,93,0.00,,,0.47,meteohub,2013-09-14 04:54:00,
2013-09-13 22:55:00,59.4,57.4,29.72,West,271,0.0,4.0,93,0.00,,,0.47,meteohub,2013-09-14 04:55:00,
2013-09-13 22:56:00,59.4,57.4,29.72,West,271,0.0,4.0,93,0.00,,,0.47,meteohub,2013-09-14 04:56:00,
2013-09-13 22:58:00,59.4,57.4,29.72,West,271,1.0,4.0,93,0.00,,,0.47,meteohub,2013-09-14 04:58:00,
2013-09-13 23:01:00,59.2,57.2,29.72,West,271,2.0,3.0,93,0.00,,,0.47,meteohub,2013-09-14 05:01:00,
2013-09-13 23:02:00,59.2,57.2,29.72,West,271,0.0,3.0,93,0.00,,,0.47,meteohub,2013-09-14 05:02:00,
2013-09-13 23:03:00,59.2,57.2,29.72,West,267,4.0,4.0,93,0.00,,,0.47,meteohub,2013-09-14 05:03:00,
2013-09-13 23:05:00,59.2,57.2,29.72,West,267,0.0,3.0,93,0.00,,,0.47,meteohub,2013-09-14 05:05:00,
2013-09-13 23:07:00,59.2,57.2,29.72,West,267,0.0,4.0,93,0.00,,,0.47,meteohub,2013-09-14 05:07:00,
2013-09-13 23:09:00,59.2,57.2,29.72,West,267,0.0,4.0,93,0.00,,,0.47,meteohub,2013-09-14 05:09:00,
2013-09-13 23:10:00,59.0,57.0,29.72,West,267,0.0,5.0,93,0.00,,,0.47,meteohub,2013-09-14 05:10:00,
2013-09-13 23:12:00,59.0,57.0,29.72,West,267,0.0,5.0,93,0.00,,,0.47,meteohub,2013-09-14 05:12:00,
2013-09-13 23:14:00,58.8,56.8,29.72,West,267,0.0,5.0,93,0.00,,,0.47,meteohub,2013-09-14 05:14:00,
2013-09-13 23:15:00,58.8,56.8,29.73,West,267,0.0,5.0,93,0.00,,,0.47,meteohub,2013-09-14 05:15:00,
2013-09-13 23:17:00,58.8,56.8,29.73,West,267,0.0,5.0,93,0.00,,,0.47,meteohub,2013-09-14 05:17:00,
2013-09-13 23:18:00,58.8,56.8,29.72,West,267,1.0,5.0,93,0.00,,,0.47,meteohub,2013-09-14 05:18:00,
2013-09-13 23:20:00,58.8,56.8,29.72,West,267,1.0,5.0,93,0.00,,,0.47,meteohub,2013-09-14 05:20:00,
2013-09-13 23:22:00,58.6,56.7,29.72,West,267,0.0,2.0,93,0.00,,,0.47,meteohub,2013-09-14 05:22:00,
2013-09-13 23:23:00,58.6,56.7,29.72,West,267,1.0,2.0,93,0.00,,,0.47,meteohub,2013-09-14 05:23:00,
2013-09-13 23:24:00,58.6,56.7,29.72,West,267,0.0,2.0,93,0.00,,,0.47,meteohub,2013-09-14 05:24:00,
2013-09-13 23:25:00,58.6,56.7,29.73,West,267,0.0,2.0,93,0.00,,,0.47,meteohub,2013-09-14 05:25:00,
2013-09-13 23:29:00,58.6,56.7,29.73,West,267,0.0,2.0,93,0.00,,,0.47,meteohub,2013-09-14 05:29:00,
2013-09-13 23:30:00,58.6,56.7,29.73,West,267,0.0,2.0,93,0.00,,,0.47,meteohub,2013-09-14 05:30:00,
2013-09-13 23:31:00,58.6,56.7,29.72,West,267,0.0,2.0,93,0.00,,,0.47,meteohub,2013-09-14 05:31:00,
2013-09-13 23:32:00,58.6,56.7,29.72,West,267,0.0,2.0,93,0.00,,,0.47,meteohub,2013-09-14 05:32:00,
2013-09-13 23:35:00,58.6,56.7,29.72,West,267,0.0,1.0,93,0.00,,,0.47,meteohub,2013-09-14 05:35:00,
2013-09-13 23:36:00,58.6,56.7,29.72,West,267,0.0,1.0,93,0.00,,,0.47,meteohub,2013-09-14 05:36:00,
2013-09-13 23:37:00,58.6,56.7,29.73,West,267,0.0,1.0,93,0.00,,,0.47,meteohub,2013-09-14 05:37:00,
2013-09-13 23:41:00,58.5,56.5,29.73,West,267,0.0,1.0,93,0.00,,,0.47,meteohub,2013-09-14 05:41:00,
2013-09-13 23:42:00,58.5,56.5,29.73,West,267,0.0,1.0,93,0.00,,,0.47,meteohub,2013-09-14 05:42:00,
2013-09-13 23:44:00,58.5,56.5,29.72,West,267,0.0,1.0,93,0.00,,,0.47,meteohub,2013-09-14 05:44:00,
2013-09-13 23:45:00,58.5,56.7,29.73,West,267,0.0,0.0,94,0.00,,,0.47,meteohub,2013-09-14 05:45:00,
2013-09-13 23:47:00,58.5,56.7,29.73,West,267,2.0,0.0,94,0.00,,,0.47,meteohub,2013-09-14 05:47:00,
2013-09-13 23:49:00,58.5,56.5,29.73,West,267,0.0,0.0,93,0.00,,,0.47,meteohub,2013-09-14 05:49:00,
2013-09-13 23:52:00,58.5,56.5,29.73,West,267,1.0,2.0,93,0.00,,,0.47,meteohub,2013-09-14 05:52:00,
2013-09-13 23:53:00,58.5,56.5,29.73,West,267,0.0,2.0,93,0.00,,,0.47,meteohub,2013-09-14 05:53:00,
2013-09-13 23:55:00,58.5,56.5,29.73,West,267,2.0,2.0,93,0.00,,,0.47,meteohub,2013-09-14 05:55:00,
2013-09-13 23:56:00,58.5,56.5,29.73,West,267,1.0,3.0,93,0.00,,,0.47,meteohub,2013-09-14 05:56:00,
2013-09-13 23:57:00,58.5,56.5,29.73,West,267,1.0,3.0,93,0.00,,,0.47,meteohub,2013-09-14 05:57:00,